MVA1054 LPPT-SBGR

Flight info

Callsign MVA1054
Flight time 10h 10m
Altitude 38000
Route LPPT/02 N0480F330 BEVO1L BEVOP DCT BAROK UN873 SAMAR N873 ODEGI/N0491F320 N873 ISOKA/N0490F340 N873 IPERA UN873 ASEBA/N0488F360 UN873 NTL DCT OPTUR/N0480F380 DCT ASGIK UZ21 VUNOX SANP1A SBGR/10R
Aircraft A339/H-V/N

Departure

Time 2026-05-05 11:58
Airport Lisbon Humberto Delgado Airport (LPPT)

Arrival

Time 2026-05-05 22:09
Airport São Paulo/Guarulhos–Governor André Franco Montoro International Airport (SBGR)
Time Latitude Longitude Altitude Speed Heading
2026-05-05 11:38 38.77610 -9.13196 343 ft 0 kts 78°
2026-05-05 11:46 38.77609 -9.13198 343 ft 1 kts 78°
2026-05-05 11:46 38.77606 -9.13218 356 ft 3 kts 78°
2026-05-05 11:46 38.77602 -9.13243 352 ft 3 kts 78°
2026-05-05 11:47 38.77599 -9.13265 354 ft 3 kts 69°
2026-05-05 11:47 38.77593 -9.13287 354 ft 3 kts 49°
2026-05-05 11:47 38.77592 -9.13289 354 ft 0 kts 47°
2026-05-05 11:48 38.77591 -9.13290 354 ft 0 kts 50°
2026-05-05 11:48 38.77604 -9.13286 351 ft 3 kts 19°
2026-05-05 11:48 38.77614 -9.13295 354 ft 1 kts 339°
2026-05-05 11:49 38.77631 -9.13308 351 ft 5 kts 328°
2026-05-05 11:49 38.77651 -9.13334 355 ft 2 kts 302°
2026-05-05 11:49 38.77651 -9.13340 354 ft 0 kts 294°
2026-05-05 11:50 38.77636 -9.13384 358 ft 6 kts 226°
2026-05-05 11:50 38.77613 -9.13403 356 ft 3 kts 214°
2026-05-05 11:50 38.77599 -9.13415 357 ft 2 kts 212°
2026-05-05 11:50 38.77587 -9.13423 358 ft 6 kts 208°
2026-05-05 11:51 38.77500 -9.13479 359 ft 13 kts 210°
2026-05-05 11:51 38.77426 -9.13504 352 ft 11 kts 185°
2026-05-05 11:51 38.77356 -9.13510 358 ft 10 kts 183°
2026-05-05 11:51 38.77299 -9.13527 360 ft 8 kts 202°
2026-05-05 11:52 38.77283 -9.13570 357 ft 6 kts 248°
2026-05-05 11:52 38.77264 -9.13663 363 ft 12 kts 259°
2026-05-05 11:52 38.77251 -9.13763 363 ft 11 kts 260°
2026-05-05 11:52 38.77201 -9.13855 366 ft 17 kts 217°
2026-05-05 11:53 38.77075 -9.13928 364 ft 17 kts 203°
2026-05-05 11:53 38.76952 -9.13995 358 ft 21 kts 202°
2026-05-05 11:53 38.76818 -9.14062 357 ft 22 kts 195°
2026-05-05 11:53 38.76671 -9.14042 356 ft 21 kts 171°
2026-05-05 11:54 38.76556 -9.14097 356 ft 16 kts 199°
2026-05-05 11:54 38.76513 -9.14202 348 ft 14 kts 283°
2026-05-05 11:54 38.76535 -9.14296 351 ft 0 kts 292°
2026-05-05 11:56 38.76557 -9.14357 348 ft 13 kts 297°
2026-05-05 11:56 38.76629 -9.14391 346 ft 10 kts
2026-05-05 11:57 38.76643 -9.14386 351 ft 0 kts 13°
2026-05-05 11:57 38.76668 -9.14377 344 ft 18 kts 16°
2026-05-05 11:57 38.76840 -9.14286 353 ft 63 kts 24°
2026-05-05 11:58 38.77707 -9.13828 373 ft 139 kts 22°
2026-05-05 11:58 38.78362 -9.13474 376 ft 168 kts 22°
2026-05-05 11:58 38.79438 -9.12850 764 ft 171 kts 22°
2026-05-05 11:58 38.80493 -9.12196 1403 ft 170 kts 21°
2026-05-05 11:59 38.81466 -9.11601 1676 ft 182 kts 22°
2026-05-05 11:59 38.82616 -9.10832 1928 ft 194 kts 26°
2026-05-05 11:59 38.83644 -9.09816 1976 ft 193 kts 41°
2026-05-05 11:59 38.84544 -9.08486 2183 ft 206 kts 49°
2026-05-05 12:00 38.85355 -9.07068 2391 ft 225 kts 51°
2026-05-05 12:00 38.86201 -9.05446 2589 ft 242 kts 54°
2026-05-05 12:00 38.86459 -9.04914 2634 ft 248 kts 54°
2026-05-05 12:00 38.87140 -9.03401 2832 ft 260 kts 58°
2026-05-05 12:01 38.87634 -9.02137 3172 ft 260 kts 62°
2026-05-05 12:01 38.88109 -9.00740 3589 ft 259 kts 65°
2026-05-05 12:01 38.88266 -9.00235 3658 ft 261 kts 66°
2026-05-05 12:01 38.88339 -8.99992 3701 ft 262 kts 66°
2026-05-05 12:02 38.88383 -8.99843 3734 ft 262 kts 66°
2026-05-05 12:02 38.88458 -8.99583 3778 ft 263 kts 67°
2026-05-05 12:02 38.88500 -8.99436 3810 ft 264 kts 68°
2026-05-05 12:02 38.88599 -8.99070 3892 ft 264 kts 68°
2026-05-05 12:03 38.88656 -8.98847 3958 ft 264 kts 69°
2026-05-05 12:03 38.88815 -8.98181 4177 ft 262 kts 71°
2026-05-05 12:03 38.89166 -8.96393 4519 ft 268 kts 75°
2026-05-05 12:03 38.89461 -8.93963 5044 ft 271 kts 81°
2026-05-05 12:04 38.89576 -8.91536 5546 ft 274 kts 86°
2026-05-05 12:04 38.89548 -8.89084 6083 ft 276 kts 88°
2026-05-05 12:04 38.89533 -8.86612 6589 ft 277 kts 88°
2026-05-05 12:04 38.89536 -8.84242 7056 ft 280 kts 87°
2026-05-05 12:05 38.89501 -8.81720 7504 ft 285 kts 91°
2026-05-05 12:05 38.89243 -8.79174 7986 ft 289 kts 98°
2026-05-05 12:05 38.88771 -8.76704 8475 ft 292 kts 104°
2026-05-05 12:05 38.88089 -8.74224 8943 ft 297 kts 110°
2026-05-05 12:06 38.87199 -8.71794 9371 ft 304 kts 116°
2026-05-05 12:06 38.86094 -8.69455 9866 ft 308 kts 123°
2026-05-05 12:06 38.84803 -8.67285 10276 ft 313 kts 129°
2026-05-05 12:06 38.83253 -8.65193 10412 ft 329 kts 136°
2026-05-05 12:07 38.81443 -8.63277 10558 ft 344 kts 144°
2026-05-05 12:07 38.79410 -8.61620 10693 ft 357 kts 152°
2026-05-05 12:07 38.77139 -8.60261 11034 ft 362 kts 160°
2026-05-05 12:07 38.74733 -8.59273 11451 ft 364 kts 168°
2026-05-05 12:08 38.72231 -8.58684 11919 ft 365 kts 176°
2026-05-05 12:08 38.69716 -8.58512 12344 ft 365 kts 184°
2026-05-05 12:08 38.67202 -8.58867 12761 ft 362 kts 200°
2026-05-05 12:08 38.65022 -8.60180 13191 ft 354 kts 220°
2026-05-05 12:09 38.63329 -8.62362 13625 ft 347 kts 241°
2026-05-05 12:09 38.62362 -8.65136 14052 ft 339 kts 261°
2026-05-05 12:09 38.62226 -8.68114 14441 ft 334 kts 277°
2026-05-05 12:09 38.62315 -8.71105 14782 ft 339 kts 271°
2026-05-05 12:10 38.61968 -8.74107 15159 ft 345 kts 259°
2026-05-05 12:10 38.61150 -8.77020 15562 ft 351 kts 250°
2026-05-05 12:10 38.60058 -8.79789 15937 ft 355 kts 245°
2026-05-05 12:10 38.58814 -8.82538 16332 ft 358 kts 243°
2026-05-05 12:11 38.57551 -8.85207 16707 ft 360 kts 243°
2026-05-05 12:11 38.56233 -8.87983 17077 ft 362 kts 243°
2026-05-05 12:11 38.54943 -8.90720 17487 ft 363 kts 243°
2026-05-05 12:11 38.53642 -8.93502 17859 ft 365 kts 243°
2026-05-05 12:12 38.52334 -8.96306 18234 ft 368 kts 243°
2026-05-05 12:12 38.51033 -8.99101 18605 ft 369 kts 243°
2026-05-05 12:12 38.49718 -9.01923 18996 ft 370 kts 243°
2026-05-05 12:12 38.48392 -9.04772 19351 ft 371 kts 243°
2026-05-05 12:13 38.47086 -9.07575 19706 ft 372 kts 243°
2026-05-05 12:13 38.45759 -9.10420 20094 ft 373 kts 243°
2026-05-05 12:13 38.44500 -9.13116 20428 ft 375 kts 243°
2026-05-05 12:13 38.43016 -9.15843 20751 ft 381 kts 231°
2026-05-05 12:14 38.41169 -9.17856 21080 ft 389 kts 217°
2026-05-05 12:14 38.38739 -9.19461 21439 ft 395 kts 207°
2026-05-05 12:14 38.36166 -9.20641 21794 ft 399 kts 201°
2026-05-05 12:14 38.33450 -9.21523 22149 ft 403 kts 197°
2026-05-05 12:15 38.30723 -9.22390 22505 ft 403 kts 199°
2026-05-05 12:15 38.27995 -9.23343 22852 ft 405 kts 200°
2026-05-05 12:15 38.25641 -9.24195 23179 ft 406 kts 200°
2026-05-05 12:15 38.22915 -9.25189 23540 ft 407 kts 200°
2026-05-05 12:16 38.20173 -9.26186 23873 ft 409 kts 200°
2026-05-05 12:16 38.17430 -9.27180 24201 ft 409 kts 200°
2026-05-05 12:16 38.14686 -9.28169 24543 ft 410 kts 200°
2026-05-05 12:16 38.11966 -9.29148 24861 ft 411 kts 200°
2026-05-05 12:17 38.09200 -9.30142 25172 ft 412 kts 200°
2026-05-05 12:17 38.06451 -9.31130 25486 ft 413 kts 200°
2026-05-05 12:17 38.03679 -9.32125 25811 ft 413 kts 200°
2026-05-05 12:17 38.00894 -9.33102 26118 ft 416 kts 198°
2026-05-05 12:18 37.98058 -9.33754 26400 ft 422 kts 192°
2026-05-05 12:18 37.95358 -9.34089 26670 ft 423 kts 191°
2026-05-05 12:18 37.92451 -9.34451 26946 ft 425 kts 191°
2026-05-05 12:18 37.89485 -9.34834 27241 ft 426 kts 191°
2026-05-05 12:19 37.86551 -9.35219 27533 ft 427 kts 192°
2026-05-05 12:19 37.83572 -9.35613 27814 ft 428 kts 192°
2026-05-05 12:19 37.80605 -9.36006 28092 ft 429 kts 192°
2026-05-05 12:19 37.77654 -9.36396 28369 ft 430 kts 192°
2026-05-05 12:20 37.74674 -9.36790 28642 ft 432 kts 192°
2026-05-05 12:20 37.71657 -9.37188 28905 ft 433 kts 192°
2026-05-05 12:20 37.68665 -9.37582 29185 ft 434 kts 192°
2026-05-05 12:20 37.65653 -9.37978 29428 ft 435 kts 192°
2026-05-05 12:21 37.62650 -9.38382 29688 ft 435 kts 193°
2026-05-05 12:21 37.59713 -9.38991 29935 ft 432 kts 198°
2026-05-05 12:21 37.56817 -9.39904 30191 ft 429 kts 202°
2026-05-05 12:21 37.53985 -9.41044 30402 ft 430 kts 204°
2026-05-05 12:22 37.51114 -9.42212 30624 ft 431 kts 204°
2026-05-05 12:22 37.48270 -9.43356 30848 ft 432 kts 203°
2026-05-05 12:22 37.45407 -9.44497 31043 ft 434 kts 203°
2026-05-05 12:22 37.42508 -9.45648 31270 ft 436 kts 203°
2026-05-05 12:23 37.39601 -9.46800 31471 ft 437 kts 203°
2026-05-05 12:23 37.36710 -9.47944 31675 ft 439 kts 203°
2026-05-05 12:23 37.33809 -9.49091 31876 ft 440 kts 203°
2026-05-05 12:23 37.30874 -9.50252 32079 ft 442 kts 202°
2026-05-05 12:24 37.27921 -9.51419 32273 ft 443 kts 202°
2026-05-05 12:24 37.24990 -9.52576 32459 ft 445 kts 202°
2026-05-05 12:24 37.22027 -9.53745 32617 ft 446 kts 202°
2026-05-05 12:24 37.19050 -9.54919 32781 ft 448 kts 202°
2026-05-05 12:25 37.16097 -9.56083 32919 ft 449 kts 202°
2026-05-05 12:25 37.13088 -9.57267 33045 ft 450 kts 202°
2026-05-05 12:25 37.10124 -9.58432 33167 ft 451 kts 202°
2026-05-05 12:25 37.07112 -9.59616 33272 ft 452 kts 202°
2026-05-05 12:26 37.04123 -9.60789 33390 ft 453 kts 202°
2026-05-05 12:26 37.01105 -9.61973 33491 ft 454 kts 202°
2026-05-05 12:26 36.95065 -9.64338 33693 ft 455 kts 202°
2026-05-05 12:27 36.92033 -9.65524 33821 ft 455 kts 202°
2026-05-05 12:27 36.89012 -9.66704 33962 ft 454 kts 202°
2026-05-05 12:27 36.86021 -9.67871 34093 ft 453 kts 202°
2026-05-05 12:27 36.83002 -9.69049 34205 ft 453 kts 202°
2026-05-05 12:28 36.79976 -9.70229 34313 ft 453 kts 202°
2026-05-05 12:28 36.76968 -9.71401 34418 ft 452 kts 202°
2026-05-05 12:28 36.73994 -9.72558 34535 ft 452 kts 202°
2026-05-05 12:28 36.70972 -9.73733 34640 ft 452 kts 202°
2026-05-05 12:29 36.64991 -9.76057 34854 ft 451 kts 202°
2026-05-05 12:29 36.58996 -9.78382 35048 ft 450 kts 202°
2026-05-05 12:30 36.53015 -9.80698 35239 ft 450 kts 202°
2026-05-05 12:30 36.47071 -9.82996 35416 ft 449 kts 202°
2026-05-05 12:31 36.41177 -9.85270 35600 ft 449 kts 201°
2026-05-05 12:31 36.35218 -9.87567 35760 ft 449 kts 201°
2026-05-05 12:32 36.29255 -9.89861 35916 ft 449 kts 201°
2026-05-05 12:32 36.23269 -9.92160 36067 ft 448 kts 201°
2026-05-05 12:33 36.17325 -9.94439 36123 ft 449 kts 201°
2026-05-05 12:33 36.11380 -9.96715 36123 ft 449 kts 201°
2026-05-05 12:34 36.05395 -9.99003 36126 ft 449 kts 201°
2026-05-05 12:34 35.99514 -10.01424 36117 ft 446 kts 206°
2026-05-05 12:35 35.94014 -10.04923 36131 ft 442 kts 216°
2026-05-05 12:35 35.89073 -10.09360 36135 ft 439 kts 220°
2026-05-05 12:36 35.84210 -10.13918 36139 ft 440 kts 220°
2026-05-05 12:36 35.79327 -10.18446 36144 ft 440 kts 220°
2026-05-05 12:37 35.74429 -10.22976 36146 ft 441 kts 220°
2026-05-05 12:37 35.69535 -10.27498 36146 ft 441 kts 220°
2026-05-05 12:38 35.64622 -10.32030 36145 ft 441 kts 220°
2026-05-05 12:38 35.59705 -10.36559 36141 ft 441 kts 219°
2026-05-05 12:39 35.54777 -10.41091 36144 ft 442 kts 219°
2026-05-05 12:39 35.49872 -10.45595 36147 ft 442 kts 219°
2026-05-05 12:40 35.44942 -10.50114 36146 ft 442 kts 219°
2026-05-05 12:40 35.40035 -10.54606 36145 ft 442 kts 219°
2026-05-05 12:41 35.35083 -10.59131 36144 ft 442 kts 219°
2026-05-05 12:41 35.30172 -10.63612 36149 ft 442 kts 219°
2026-05-05 12:42 35.25211 -10.68131 36145 ft 443 kts 219°
2026-05-05 12:42 35.20282 -10.72615 36144 ft 443 kts 219°
2026-05-05 12:43 35.16157 -10.76362 36144 ft 443 kts 219°
2026-05-05 12:43 35.11198 -10.80859 36148 ft 443 kts 219°
2026-05-05 12:44 35.06230 -10.85357 36145 ft 444 kts 219°
2026-05-05 12:44 35.01300 -10.89814 36145 ft 444 kts 219°
2026-05-05 12:45 34.96324 -10.94306 36146 ft 444 kts 219°
2026-05-05 12:45 34.91379 -10.98763 36144 ft 444 kts 218°
2026-05-05 12:46 34.86394 -11.03250 36145 ft 445 kts 218°
2026-05-05 12:46 34.81403 -11.07734 36148 ft 445 kts 218°
2026-05-05 12:47 34.76432 -11.12194 36146 ft 445 kts 218°
2026-05-05 12:47 34.71422 -11.16681 36145 ft 445 kts 218°
2026-05-05 12:48 34.66444 -11.21134 36143 ft 446 kts 218°
2026-05-05 12:48 34.61434 -11.25612 36141 ft 446 kts 218°
2026-05-05 12:49 34.56469 -11.30067 36143 ft 446 kts 218°
2026-05-05 12:49 34.51496 -11.34531 36144 ft 446 kts 218°
2026-05-05 12:50 34.46495 -11.39010 36143 ft 446 kts 218°
2026-05-05 12:50 34.41497 -11.43478 36143 ft 446 kts 218°
2026-05-05 12:51 34.36546 -11.47897 36143 ft 446 kts 218°
2026-05-05 12:51 34.31529 -11.52368 36141 ft 446 kts 218°
2026-05-05 12:52 34.26526 -11.56820 36141 ft 446 kts 218°
2026-05-05 12:52 34.21545 -11.61246 36141 ft 447 kts 218°
2026-05-05 12:53 34.16518 -11.65705 36141 ft 447 kts 218°
2026-05-05 12:53 34.11518 -11.70134 36137 ft 447 kts 218°
2026-05-05 12:54 34.03983 -11.76797 36137 ft 447 kts 218°
2026-05-05 12:55 33.98960 -11.81230 36133 ft 447 kts 218°
2026-05-05 12:55 33.93964 -11.85632 36129 ft 448 kts 218°
2026-05-05 12:56 33.88930 -11.90061 36127 ft 448 kts 218°
2026-05-05 12:56 33.83947 -11.94439 36127 ft 448 kts 218°
2026-05-05 12:57 33.78937 -11.98835 36127 ft 448 kts 218°
2026-05-05 12:57 33.73879 -12.03265 36125 ft 448 kts 218°
2026-05-05 12:58 33.68865 -12.07651 36125 ft 448 kts 218°
2026-05-05 12:58 33.63820 -12.12057 36133 ft 448 kts 218°
2026-05-05 12:59 33.58795 -12.16439 36131 ft 448 kts 218°
2026-05-05 12:59 33.53748 -12.20834 36131 ft 448 kts 218°
2026-05-05 13:00 33.46166 -12.27424 36136 ft 448 kts 218°
2026-05-05 13:01 33.36482 -12.35821 36131 ft 448 kts 218°
2026-05-05 13:01 33.31415 -12.40204 36135 ft 448 kts 218°
2026-05-05 13:02 33.26384 -12.44551 36134 ft 448 kts 218°
2026-05-05 13:02 33.21328 -12.48912 36131 ft 447 kts 218°
2026-05-05 13:03 33.16272 -12.53267 36135 ft 447 kts 218°
2026-05-05 13:03 33.11251 -12.57587 36132 ft 447 kts 218°
2026-05-05 13:04 33.06194 -12.61930 36135 ft 447 kts 218°
2026-05-05 13:04 33.01138 -12.66266 36135 ft 447 kts 218°
2026-05-05 13:05 32.96120 -12.70564 36135 ft 447 kts 218°
2026-05-05 13:05 32.91057 -12.74894 36133 ft 447 kts 218°
2026-05-05 13:06 32.86028 -12.79190 36136 ft 446 kts 218°
2026-05-05 13:06 32.80955 -12.83505 36135 ft 446 kts 218°
2026-05-05 13:07 32.75913 -12.87771 36135 ft 446 kts 218°
2026-05-05 13:07 32.70851 -12.92053 36132 ft 446 kts 218°
2026-05-05 13:08 32.65815 -12.96310 36132 ft 445 kts 218°
2026-05-05 13:08 32.60791 -13.00549 36146 ft 444 kts 218°
2026-05-05 13:09 32.55742 -13.04804 36143 ft 442 kts 218°
2026-05-05 13:09 32.50745 -13.09009 36149 ft 441 kts 218°
2026-05-05 13:10 32.45761 -13.13197 36150 ft 440 kts 218°
2026-05-05 13:10 32.40746 -13.17405 36143 ft 439 kts 218°
2026-05-05 13:11 32.35776 -13.21570 36232 ft 439 kts 218°
2026-05-05 13:11 32.33280 -13.23659 36348 ft 438 kts 218°
2026-05-05 13:11 32.30824 -13.25712 36467 ft 436 kts 219°
2026-05-05 13:12 32.28338 -13.27790 36604 ft 435 kts 219°
2026-05-05 13:12 32.25862 -13.29858 36726 ft 433 kts 219°
2026-05-05 13:12 32.23425 -13.31892 36850 ft 432 kts 219°
2026-05-05 13:12 32.20960 -13.33948 36971 ft 430 kts 219°
2026-05-05 13:13 32.18537 -13.35968 37089 ft 429 kts 219°
2026-05-05 13:13 32.16101 -13.37998 37198 ft 428 kts 219°
2026-05-05 13:13 32.11250 -13.42035 36724 ft 423 kts 219°
2026-05-05 13:14 32.08869 -13.44018 36277 ft 424 kts 219°
2026-05-05 13:14 32.06442 -13.46036 36152 ft 426 kts 219°
2026-05-05 13:14 32.01575 -13.50078 36120 ft 431 kts 219°
2026-05-05 13:15 31.96674 -13.54139 36115 ft 430 kts 219°
2026-05-05 13:15 31.91807 -13.58168 36116 ft 429 kts 219°
2026-05-05 13:16 31.86942 -13.62191 36117 ft 428 kts 219°
2026-05-05 13:16 31.82094 -13.66194 36116 ft 427 kts 219°
2026-05-05 13:17 31.77226 -13.70209 36116 ft 426 kts 219°
2026-05-05 13:17 31.72369 -13.74209 36112 ft 425 kts 219°
2026-05-05 13:18 31.67541 -13.78181 36113 ft 425 kts 219°
2026-05-05 13:18 31.62697 -13.82161 36114 ft 423 kts 219°
2026-05-05 13:19 31.57883 -13.86110 36113 ft 423 kts 219°
2026-05-05 13:19 31.53085 -13.90042 36111 ft 422 kts 219°
2026-05-05 13:20 31.48281 -13.93973 36110 ft 421 kts 219°
2026-05-05 13:20 31.43474 -13.97902 36104 ft 420 kts 219°
2026-05-05 13:21 31.38909 -14.01628 36106 ft 419 kts 219°
2026-05-05 13:21 31.34124 -14.05529 36109 ft 417 kts 219°
2026-05-05 13:22 31.29356 -14.09415 36107 ft 416 kts 219°
2026-05-05 13:22 31.24623 -14.13294 36103 ft 415 kts 220°
2026-05-05 13:23 31.19921 -14.17145 36103 ft 414 kts 220°
2026-05-05 13:23 31.15204 -14.21002 36102 ft 413 kts 220°
2026-05-05 13:24 31.10499 -14.24841 36105 ft 411 kts 220°
2026-05-05 13:24 31.05839 -14.28641 36086 ft 410 kts 220°
2026-05-05 13:25 31.01159 -14.32452 36090 ft 409 kts 220°
2026-05-05 13:25 30.96495 -14.36245 36082 ft 408 kts 220°
2026-05-05 13:26 30.91958 -14.39757 36078 ft 410 kts 216°
2026-05-05 13:26 30.86791 -14.42665 36095 ft 416 kts 208°
2026-05-05 13:27 30.81261 -14.44780 36094 ft 419 kts 205°
2026-05-05 13:27 30.75729 -14.46801 36098 ft 418 kts 205°
2026-05-05 13:28 30.70195 -14.48842 36092 ft 416 kts 205°
2026-05-05 13:28 30.64667 -14.50878 36093 ft 415 kts 206°
2026-05-05 13:29 30.59194 -14.52890 36094 ft 414 kts 206°
2026-05-05 13:29 30.53704 -14.54906 36093 ft 413 kts 206°
2026-05-05 13:30 30.48225 -14.56915 36097 ft 412 kts 206°
2026-05-05 13:30 30.42772 -14.58912 36092 ft 410 kts 206°
2026-05-05 13:31 30.37317 -14.60909 36090 ft 410 kts 206°
2026-05-05 13:31 30.31920 -14.62881 36087 ft 409 kts 206°
2026-05-05 13:32 30.26495 -14.64861 36088 ft 408 kts 206°
2026-05-05 13:32 30.21084 -14.66844 36082 ft 405 kts 208°
2026-05-05 13:33 30.16155 -14.69637 36081 ft 395 kts 216°
2026-05-05 13:33 30.11339 -14.72667 36083 ft 394 kts 216°
2026-05-05 13:34 30.06479 -14.75619 36085 ft 394 kts 215°
2026-05-05 13:34 30.02430 -14.78041 36082 ft 394 kts 215°
2026-05-05 13:35 29.97596 -14.80925 36083 ft 393 kts 215°
2026-05-05 13:35 29.92737 -14.83822 36081 ft 393 kts 215°
2026-05-05 13:36 29.87879 -14.86715 36081 ft 392 kts 215°
2026-05-05 13:36 29.83050 -14.89588 36080 ft 392 kts 215°
2026-05-05 13:37 29.78198 -14.92470 36078 ft 391 kts 215°
2026-05-05 13:37 29.73353 -14.95347 36076 ft 391 kts 215°
2026-05-05 13:38 29.68532 -14.98205 36077 ft 391 kts 215°
2026-05-05 13:38 29.63705 -15.01064 36076 ft 391 kts 215°
2026-05-05 13:39 29.58851 -15.03936 36081 ft 391 kts 215°
2026-05-05 13:39 29.54030 -15.06785 36078 ft 391 kts 215°
2026-05-05 13:40 29.49193 -15.09640 36078 ft 391 kts 215°
2026-05-05 13:40 29.44347 -15.12498 36074 ft 391 kts 215°
2026-05-05 13:41 29.39499 -15.15354 36086 ft 392 kts 215°
2026-05-05 13:41 29.34649 -15.18208 36085 ft 392 kts 215°
2026-05-05 13:42 29.29830 -15.21040 36078 ft 392 kts 215°
2026-05-05 13:42 29.24979 -15.23888 36071 ft 392 kts 215°
2026-05-05 13:43 29.20106 -15.26747 36076 ft 392 kts 215°
2026-05-05 13:43 29.15270 -15.29579 36070 ft 392 kts 215°
2026-05-05 13:44 29.10425 -15.32415 36068 ft 392 kts 215°
2026-05-05 13:44 29.05560 -15.35260 36071 ft 392 kts 215°
2026-05-05 13:45 29.00689 -15.38104 36070 ft 392 kts 215°
2026-05-05 13:45 28.95842 -15.40932 36064 ft 393 kts 215°
2026-05-05 13:46 28.90966 -15.43773 36068 ft 393 kts 215°
2026-05-05 13:46 28.86103 -15.46604 36064 ft 393 kts 215°
2026-05-05 13:47 28.81254 -15.49424 36062 ft 393 kts 215°
2026-05-05 13:47 28.76443 -15.52219 36063 ft 393 kts 215°
2026-05-05 13:48 28.71574 -15.55044 36063 ft 393 kts 214°
2026-05-05 13:48 28.66696 -15.57872 36062 ft 393 kts 214°
2026-05-05 13:49 28.61807 -15.60703 36063 ft 393 kts 214°
2026-05-05 13:49 28.56924 -15.63527 36060 ft 393 kts 214°
2026-05-05 13:50 28.52104 -15.66312 36061 ft 393 kts 214°
2026-05-05 13:50 28.47210 -15.69137 36059 ft 393 kts 214°
2026-05-05 13:51 28.42348 -15.71940 36055 ft 393 kts 214°
2026-05-05 13:51 28.37452 -15.74761 36047 ft 394 kts 214°
2026-05-05 13:52 28.32586 -15.77561 36046 ft 394 kts 214°
2026-05-05 13:52 28.27706 -15.80366 36055 ft 394 kts 214°
2026-05-05 13:53 28.22808 -15.83179 36056 ft 394 kts 214°
2026-05-05 13:53 28.17940 -15.85972 36053 ft 394 kts 214°
2026-05-05 13:54 28.13040 -15.88779 36052 ft 394 kts 214°
2026-05-05 13:54 28.08127 -15.91592 36047 ft 394 kts 214°
2026-05-05 13:55 28.03244 -15.94385 36046 ft 395 kts 214°
2026-05-05 13:55 27.98342 -15.97185 36044 ft 395 kts 214°
2026-05-05 13:56 27.93470 -15.99965 36045 ft 395 kts 214°
2026-05-05 13:56 27.88587 -16.02750 36045 ft 395 kts 214°
2026-05-05 13:57 27.83661 -16.05555 36043 ft 395 kts 214°
2026-05-05 13:57 27.78769 -16.08339 36045 ft 395 kts 214°
2026-05-05 13:58 27.73845 -16.11137 36046 ft 395 kts 214°
2026-05-05 13:58 27.68952 -16.13915 36045 ft 396 kts 214°
2026-05-05 13:59 27.61557 -16.18109 36040 ft 396 kts 214°
2026-05-05 14:00 27.54995 -16.21825 36041 ft 396 kts 214°
2026-05-05 14:00 27.49257 -16.25070 36042 ft 396 kts 214°
2026-05-05 14:01 27.44346 -16.27845 36043 ft 396 kts 214°
2026-05-05 14:01 27.39415 -16.30627 36040 ft 396 kts 214°
2026-05-05 14:02 27.34463 -16.33419 36042 ft 397 kts 214°
2026-05-05 14:02 27.29551 -16.36187 36042 ft 397 kts 214°
2026-05-05 14:03 27.24608 -16.38968 36042 ft 397 kts 214°
2026-05-05 14:03 27.19658 -16.41750 36036 ft 397 kts 214°
2026-05-05 14:04 27.14749 -16.44507 36038 ft 397 kts 214°
2026-05-05 14:04 27.09780 -16.47295 36040 ft 398 kts 214°
2026-05-05 14:05 27.04827 -16.50071 36037 ft 398 kts 213°
2026-05-05 14:05 26.99902 -16.52828 36036 ft 398 kts 213°
2026-05-05 14:06 26.94937 -16.55605 36039 ft 398 kts 213°
2026-05-05 14:06 26.89961 -16.58385 36036 ft 399 kts 213°
2026-05-05 14:07 26.84995 -16.61158 36035 ft 399 kts 213°
2026-05-05 14:07 26.80045 -16.63918 36035 ft 399 kts 213°
2026-05-05 14:08 26.75063 -16.66694 36037 ft 399 kts 213°
2026-05-05 14:08 26.70125 -16.69442 36039 ft 399 kts 213°
2026-05-05 14:09 26.65144 -16.72212 36046 ft 400 kts 213°
2026-05-05 14:09 26.60167 -16.74976 36041 ft 400 kts 213°
2026-05-05 14:10 26.55177 -16.77746 36038 ft 400 kts 213°
2026-05-05 14:10 26.50190 -16.80511 36035 ft 400 kts 213°
2026-05-05 14:11 26.45231 -16.83258 36029 ft 400 kts 213°
2026-05-05 14:11 26.40263 -16.86006 36031 ft 400 kts 213°
2026-05-05 14:12 26.35264 -16.88770 36028 ft 401 kts 213°
2026-05-05 14:12 26.30269 -16.91528 36024 ft 401 kts 213°
2026-05-05 14:13 26.25297 -16.94271 36026 ft 401 kts 213°
2026-05-05 14:13 26.20293 -16.97029 36023 ft 401 kts 213°
2026-05-05 14:14 26.15284 -16.99787 36022 ft 401 kts 213°
2026-05-05 14:14 26.10279 -17.02540 36020 ft 401 kts 213°
2026-05-05 14:15 26.05260 -17.05299 36020 ft 402 kts 213°
2026-05-05 14:15 26.00280 -17.08034 36020 ft 402 kts 213°
2026-05-05 14:16 25.95253 -17.10792 36018 ft 402 kts 213°
2026-05-05 14:16 25.90262 -17.13527 36016 ft 402 kts 213°
2026-05-05 14:17 25.85242 -17.16276 36017 ft 402 kts 213°
2026-05-05 14:17 25.80215 -17.19026 36018 ft 402 kts 213°
2026-05-05 14:18 25.75185 -17.21775 36016 ft 402 kts 213°
2026-05-05 14:18 25.70169 -17.24514 36017 ft 403 kts 213°
2026-05-05 14:19 25.65167 -17.27242 36016 ft 403 kts 213°
2026-05-05 14:19 25.60122 -17.29991 36012 ft 403 kts 213°
2026-05-05 14:20 25.55116 -17.32716 36015 ft 403 kts 213°
2026-05-05 14:20 25.50076 -17.35458 36014 ft 403 kts 213°
2026-05-05 14:21 25.45029 -17.38200 36014 ft 403 kts 213°
2026-05-05 14:21 25.40003 -17.40928 36013 ft 404 kts 213°
2026-05-05 14:22 25.34951 -17.43669 36000 ft 404 kts 213°
2026-05-05 14:22 25.29904 -17.46403 35991 ft 404 kts 213°
2026-05-05 14:23 25.24879 -17.49124 35991 ft 404 kts 213°
2026-05-05 14:23 25.19823 -17.51859 35989 ft 405 kts 213°
2026-05-05 14:24 25.14774 -17.54589 35997 ft 405 kts 213°
2026-05-05 14:24 25.09721 -17.57318 36009 ft 405 kts 213°
2026-05-05 14:25 25.04645 -17.60057 36009 ft 405 kts 213°
2026-05-05 14:25 24.99600 -17.62834 36007 ft 403 kts 216°
2026-05-05 14:26 24.94859 -17.66080 36004 ft 401 kts 218°
2026-05-05 14:26 24.90161 -17.69345 36006 ft 402 kts 218°
2026-05-05 14:27 24.85424 -17.72619 36006 ft 402 kts 218°
2026-05-05 14:27 24.80693 -17.75880 36003 ft 402 kts 218°
2026-05-05 14:28 24.75938 -17.79154 36005 ft 402 kts 218°
2026-05-05 14:28 24.71194 -17.82418 36000 ft 403 kts 218°
2026-05-05 14:29 24.66454 -17.85676 36002 ft 403 kts 218°
2026-05-05 14:29 24.61700 -17.88940 36003 ft 403 kts 218°
2026-05-05 14:30 24.56922 -17.92218 36002 ft 403 kts 218°
2026-05-05 14:30 24.52180 -17.95468 36005 ft 404 kts 218°
2026-05-05 14:31 24.48217 -17.98182 36004 ft 404 kts 218°
2026-05-05 14:31 24.42657 -18.01987 36002 ft 404 kts 218°
2026-05-05 14:32 24.38652 -18.04725 36003 ft 404 kts 218°
2026-05-05 14:32 24.33890 -18.07978 36005 ft 404 kts 218°
2026-05-05 14:33 24.29121 -18.11233 36002 ft 404 kts 218°
2026-05-05 14:33 24.24343 -18.14490 36001 ft 404 kts 217°
2026-05-05 14:34 24.19584 -18.17732 36002 ft 405 kts 217°
2026-05-05 14:34 24.14783 -18.21000 36003 ft 405 kts 217°
2026-05-05 14:35 24.10023 -18.24237 35996 ft 405 kts 217°
2026-05-05 14:35 24.05241 -18.27486 36000 ft 405 kts 217°
2026-05-05 14:36 24.00449 -18.30739 36002 ft 405 kts 217°
2026-05-05 14:36 23.95674 -18.33977 35998 ft 405 kts 217°
2026-05-05 14:37 23.90907 -18.37207 35996 ft 405 kts 217°
2026-05-05 14:37 23.86119 -18.40449 35997 ft 405 kts 217°
2026-05-05 14:38 23.81317 -18.43697 35996 ft 405 kts 217°
2026-05-05 14:38 23.76520 -18.46939 35994 ft 405 kts 217°
2026-05-05 14:39 23.71751 -18.50159 35998 ft 405 kts 217°
2026-05-05 14:39 23.66963 -18.53389 35996 ft 405 kts 217°
2026-05-05 14:40 23.62185 -18.56610 35996 ft 405 kts 217°
2026-05-05 14:40 23.57375 -18.59849 35994 ft 405 kts 217°
2026-05-05 14:41 23.52581 -18.63075 35992 ft 405 kts 217°
2026-05-05 14:41 23.47809 -18.66283 35987 ft 404 kts 217°
2026-05-05 14:42 23.43013 -18.69505 35985 ft 404 kts 217°
2026-05-05 14:42 23.38244 -18.72705 35997 ft 404 kts 217°
2026-05-05 14:43 23.33452 -18.75919 36000 ft 404 kts 217°
2026-05-05 14:43 23.28671 -18.79122 36001 ft 404 kts 217°
2026-05-05 14:44 23.23873 -18.82334 35994 ft 404 kts 217°
2026-05-05 14:44 23.19093 -18.85530 35992 ft 404 kts 217°
2026-05-05 14:45 23.14297 -18.88735 35994 ft 404 kts 217°
2026-05-05 14:45 23.09525 -18.91922 35992 ft 404 kts 217°
2026-05-05 14:46 23.04724 -18.95125 35993 ft 404 kts 217°
2026-05-05 14:46 22.99957 -18.98302 35996 ft 404 kts 217°
2026-05-05 14:47 22.95178 -19.01484 35996 ft 404 kts 217°
2026-05-05 14:47 22.90366 -19.04686 35995 ft 404 kts 217°
2026-05-05 14:48 22.85602 -19.07854 35995 ft 403 kts 217°
2026-05-05 14:48 22.80811 -19.11037 35994 ft 403 kts 217°
2026-05-05 14:49 22.76027 -19.14213 35995 ft 403 kts 217°
2026-05-05 14:49 22.71256 -19.17377 35998 ft 403 kts 217°
2026-05-05 14:50 22.66449 -19.20562 35997 ft 403 kts 217°
2026-05-05 14:50 22.61678 -19.23721 35990 ft 403 kts 217°
2026-05-05 14:51 22.56909 -19.26876 35990 ft 403 kts 217°
2026-05-05 14:51 22.52114 -19.30046 35992 ft 403 kts 217°
2026-05-05 14:52 22.47333 -19.33204 35988 ft 403 kts 217°
2026-05-05 14:52 22.42568 -19.36349 35992 ft 403 kts 217°
2026-05-05 14:53 22.37772 -19.39511 36001 ft 403 kts 217°
2026-05-05 14:53 22.33013 -19.42647 35988 ft 403 kts 217°
2026-05-05 14:54 22.28214 -19.45806 35998 ft 403 kts 217°
2026-05-05 14:54 22.23427 -19.48955 35984 ft 403 kts 217°
2026-05-05 14:55 22.18641 -19.52101 35981 ft 403 kts 217°
2026-05-05 14:55 22.13884 -19.55226 35982 ft 403 kts 217°
2026-05-05 14:56 22.09090 -19.58373 35993 ft 402 kts 217°
2026-05-05 14:56 22.04321 -19.61499 35988 ft 403 kts 217°
2026-05-05 14:57 21.99528 -19.64636 35993 ft 402 kts 217°
2026-05-05 14:57 21.94734 -19.67775 35994 ft 403 kts 217°
2026-05-05 14:58 21.89958 -19.70898 35992 ft 403 kts 217°
2026-05-05 14:58 21.85179 -19.74022 35991 ft 403 kts 217°
2026-05-05 14:59 21.80375 -19.77159 35992 ft 403 kts 217°
2026-05-05 14:59 21.75573 -19.80291 35992 ft 403 kts 217°
2026-05-05 15:00 21.71614 -19.82872 35989 ft 403 kts 217°
2026-05-05 15:00 21.66004 -19.86527 35992 ft 403 kts 217°
2026-05-05 15:01 21.61236 -19.89631 35989 ft 403 kts 217°
2026-05-05 15:01 21.56427 -19.92760 35987 ft 403 kts 217°
2026-05-05 15:02 21.51652 -19.95864 35990 ft 403 kts 217°
2026-05-05 15:02 21.46833 -19.98994 35987 ft 403 kts 217°
2026-05-05 15:03 21.42055 -20.02095 35988 ft 403 kts 217°
2026-05-05 15:03 21.37245 -20.05214 35987 ft 403 kts 217°
2026-05-05 15:04 21.32467 -20.08309 35990 ft 402 kts 217°
2026-05-05 15:04 21.27662 -20.11420 35987 ft 402 kts 217°
2026-05-05 15:05 21.20467 -20.16074 35988 ft 403 kts 217°
2026-05-05 15:06 21.15694 -20.19158 35985 ft 403 kts 217°
2026-05-05 15:06 21.10888 -20.22261 35986 ft 403 kts 217°
2026-05-05 15:07 21.06102 -20.25349 35986 ft 404 kts 217°
2026-05-05 15:07 21.01271 -20.28463 35987 ft 404 kts 217°
2026-05-05 15:08 20.96482 -20.31549 35986 ft 404 kts 217°
2026-05-05 15:08 20.91648 -20.34660 35988 ft 404 kts 217°
2026-05-05 15:09 20.86823 -20.37764 35989 ft 404 kts 217°
2026-05-05 15:09 20.83379 -20.39978 35984 ft 405 kts 217°
2026-05-05 15:10 20.78637 -20.43024 35987 ft 405 kts 217°
2026-05-05 15:10 20.73805 -20.46125 35994 ft 405 kts 217°
2026-05-05 15:11 20.68959 -20.49234 35986 ft 405 kts 217°
2026-05-05 15:11 20.64145 -20.52319 35991 ft 405 kts 217°
2026-05-05 15:12 20.59289 -20.55429 35987 ft 406 kts 217°
2026-05-05 15:12 20.54454 -20.58524 35987 ft 406 kts 216°
2026-05-05 15:13 20.49607 -20.61623 35985 ft 406 kts 216°
2026-05-05 15:13 20.44778 -20.64709 35990 ft 407 kts 216°
2026-05-05 15:14 20.39898 -20.67825 35991 ft 407 kts 216°
2026-05-05 15:14 20.35048 -20.70920 35990 ft 407 kts 216°
2026-05-05 15:15 20.30175 -20.74017 35985 ft 407 kts 216°
2026-05-05 15:15 20.25326 -20.77098 35987 ft 407 kts 216°
2026-05-05 15:16 20.20444 -20.80200 35989 ft 408 kts 216°
2026-05-05 15:16 20.15579 -20.83289 35987 ft 408 kts 216°
2026-05-05 15:17 20.10713 -20.86377 35989 ft 408 kts 216°
2026-05-05 15:17 20.05829 -20.89473 35990 ft 409 kts 216°
2026-05-05 15:18 20.00956 -20.92559 35990 ft 409 kts 216°
2026-05-05 15:18 19.96061 -20.95657 36009 ft 409 kts 216°
2026-05-05 15:19 19.91161 -20.98756 36009 ft 409 kts 216°
2026-05-05 15:19 19.86271 -21.01847 36007 ft 410 kts 216°
2026-05-05 15:20 19.81366 -21.04945 36008 ft 410 kts 216°
2026-05-05 15:20 19.76451 -21.08046 36006 ft 410 kts 216°
2026-05-05 15:21 19.71530 -21.11150 35996 ft 411 kts 216°
2026-05-05 15:21 19.66625 -21.14240 35993 ft 411 kts 216°
2026-05-05 15:22 19.61733 -21.17321 35997 ft 411 kts 216°
2026-05-05 15:22 19.56794 -21.20429 35997 ft 411 kts 216°
2026-05-05 15:23 19.51898 -21.23508 35998 ft 411 kts 216°
2026-05-05 15:23 19.46966 -21.26607 35997 ft 411 kts 216°
2026-05-05 15:24 19.42063 -21.29686 36000 ft 411 kts 216°
2026-05-05 15:24 19.37970 -21.32255 36000 ft 411 kts 216°
2026-05-05 15:25 19.32238 -21.35848 36001 ft 410 kts 216°
2026-05-05 15:25 19.28141 -21.38416 36000 ft 410 kts 216°
2026-05-05 15:26 19.23233 -21.41490 35996 ft 410 kts 216°
2026-05-05 15:26 19.18345 -21.44549 36000 ft 409 kts 216°
2026-05-05 15:27 19.13436 -21.47619 36001 ft 409 kts 216°
2026-05-05 15:27 19.08553 -21.50670 36001 ft 409 kts 216°
2026-05-05 15:28 19.03655 -21.53729 36003 ft 409 kts 216°
2026-05-05 15:28 18.98742 -21.56795 36003 ft 408 kts 216°
2026-05-05 15:29 18.93862 -21.59839 36000 ft 408 kts 216°
2026-05-05 15:29 18.88990 -21.62875 36003 ft 408 kts 216°
2026-05-05 15:30 18.84105 -21.65917 36000 ft 407 kts 216°
2026-05-05 15:30 18.79218 -21.68958 36002 ft 407 kts 216°
2026-05-05 15:31 18.74338 -21.71993 36004 ft 407 kts 216°
2026-05-05 15:31 18.69458 -21.75026 36003 ft 406 kts 216°
2026-05-05 15:32 18.64606 -21.78040 36014 ft 406 kts 216°
2026-05-05 15:32 18.59751 -21.81053 36013 ft 406 kts 216°
2026-05-05 15:33 18.54880 -21.84075 35991 ft 407 kts 216°
2026-05-05 15:33 18.50014 -21.87091 35990 ft 407 kts 216°
2026-05-05 15:34 18.45137 -21.90113 35988 ft 407 kts 216°
2026-05-05 15:34 18.40238 -21.93145 36004 ft 408 kts 216°
2026-05-05 15:35 18.35351 -21.96168 36008 ft 408 kts 216°
2026-05-05 15:35 18.30450 -21.99198 36006 ft 408 kts 216°
2026-05-05 15:36 18.25547 -22.02227 36006 ft 408 kts 216°
2026-05-05 15:36 18.20673 -22.05236 36006 ft 408 kts 216°
2026-05-05 15:37 18.15758 -22.08269 36004 ft 409 kts 216°
2026-05-05 15:37 18.10875 -22.11279 36004 ft 409 kts 216°
2026-05-05 15:38 18.05962 -22.14306 36008 ft 409 kts 216°
2026-05-05 15:38 18.01044 -22.17335 36005 ft 409 kts 216°
2026-05-05 15:39 17.96154 -22.20344 36007 ft 409 kts 216°
2026-05-05 15:39 17.91234 -22.23370 36006 ft 409 kts 216°
2026-05-05 15:40 17.86313 -22.26394 36006 ft 409 kts 216°
2026-05-05 15:40 17.81417 -22.29401 36009 ft 410 kts 216°
2026-05-05 15:41 17.76495 -22.32422 36008 ft 410 kts 216°
2026-05-05 15:41 17.71556 -22.35452 36001 ft 411 kts 216°
2026-05-05 15:42 17.66644 -22.38462 36001 ft 411 kts 216°
2026-05-05 15:42 17.61716 -22.41481 36000 ft 411 kts 216°
2026-05-05 15:43 17.56763 -22.44514 36006 ft 412 kts 216°
2026-05-05 15:43 17.51802 -22.47549 36009 ft 412 kts 216°
2026-05-05 15:44 17.46877 -22.50560 36007 ft 412 kts 216°
2026-05-05 15:44 17.41910 -22.53595 36005 ft 412 kts 216°
2026-05-05 15:45 17.36954 -22.56621 36006 ft 413 kts 216°
2026-05-05 15:45 17.31981 -22.59655 36006 ft 413 kts 216°
2026-05-05 15:46 17.27049 -22.62663 36006 ft 413 kts 216°
2026-05-05 15:46 17.22074 -22.65695 36005 ft 413 kts 216°
2026-05-05 15:47 17.17116 -22.68715 36005 ft 414 kts 216°
2026-05-05 15:47 17.12122 -22.71755 36006 ft 414 kts 216°
2026-05-05 15:48 17.07162 -22.74772 36008 ft 414 kts 216°
2026-05-05 15:48 17.02185 -22.77798 36007 ft 414 kts 216°
2026-05-05 15:49 16.97183 -22.80837 36006 ft 415 kts 216°
2026-05-05 15:49 16.92187 -22.83871 35998 ft 415 kts 216°
2026-05-05 15:50 16.87235 -22.86875 35996 ft 415 kts 216°
2026-05-05 15:50 16.82413 -22.89800 35990 ft 415 kts 216°
2026-05-05 15:51 16.77406 -22.92837 35990 ft 416 kts 216°
2026-05-05 15:51 16.72386 -22.95874 35994 ft 416 kts 215°
2026-05-05 15:52 16.67376 -22.98798 35994 ft 417 kts 214°
2026-05-05 15:52 16.62267 -23.01764 35994 ft 417 kts 214°
2026-05-05 15:53 16.57226 -23.04703 35997 ft 418 kts 214°
2026-05-05 15:53 16.52146 -23.07668 36001 ft 418 kts 215°
2026-05-05 15:54 16.47084 -23.10620 36004 ft 418 kts 215°
2026-05-05 15:54 16.41979 -23.13595 36005 ft 419 kts 214°
2026-05-05 15:55 16.36900 -23.16554 36005 ft 419 kts 214°
2026-05-05 15:55 16.31806 -23.19519 36004 ft 419 kts 214°
2026-05-05 15:56 16.26739 -23.22466 36004 ft 419 kts 214°
2026-05-05 15:56 16.21641 -23.25430 36007 ft 419 kts 214°
2026-05-05 15:57 16.16523 -23.28403 36007 ft 420 kts 214°
2026-05-05 15:57 16.11423 -23.31365 36004 ft 420 kts 214°
2026-05-05 15:58 16.06337 -23.34317 36007 ft 420 kts 214°
2026-05-05 15:58 16.01219 -23.37286 36007 ft 421 kts 214°
2026-05-05 15:59 15.96115 -23.40244 36005 ft 421 kts 214°
2026-05-05 15:59 15.90986 -23.43215 36006 ft 421 kts 214°
2026-05-05 16:00 15.85867 -23.46180 36004 ft 422 kts 214°
2026-05-05 16:00 15.80743 -23.49145 36008 ft 422 kts 214°
2026-05-05 16:01 15.75610 -23.52113 36006 ft 422 kts 214°
2026-05-05 16:01 15.70497 -23.55068 36006 ft 423 kts 214°
2026-05-05 16:02 15.65367 -23.58031 36006 ft 423 kts 214°
2026-05-05 16:02 15.60214 -23.61006 36003 ft 423 kts 214°
2026-05-05 16:03 15.55054 -23.63983 36001 ft 423 kts 214°
2026-05-05 16:03 15.49914 -23.66947 36001 ft 424 kts 214°
2026-05-05 16:04 15.44777 -23.69906 36016 ft 423 kts 214°
2026-05-05 16:04 15.39640 -23.72865 36016 ft 424 kts 214°
2026-05-05 16:05 15.34454 -23.75851 36011 ft 425 kts 214°
2026-05-05 16:05 15.29303 -23.78815 36004 ft 425 kts 214°
2026-05-05 16:06 15.24126 -23.81791 36012 ft 426 kts 214°
2026-05-05 16:06 15.19019 -23.84726 36010 ft 426 kts 214°
2026-05-05 16:07 15.13843 -23.87698 36009 ft 426 kts 214°
2026-05-05 16:07 15.08670 -23.90668 36006 ft 427 kts 214°
2026-05-05 16:08 15.03461 -23.93656 36009 ft 427 kts 214°
2026-05-05 16:08 14.98271 -23.96632 36005 ft 427 kts 214°
2026-05-05 16:09 14.93073 -23.99610 36001 ft 428 kts 214°
2026-05-05 16:09 14.87857 -24.02598 35994 ft 428 kts 214°
2026-05-05 16:10 14.82645 -24.05580 35993 ft 429 kts 214°
2026-05-05 16:10 14.77451 -24.08552 35990 ft 429 kts 214°
2026-05-05 16:11 14.72228 -24.11538 36006 ft 429 kts 214°
2026-05-05 16:12 14.61776 -24.17510 36003 ft 430 kts 214°
2026-05-05 16:13 14.48687 -24.24977 35995 ft 431 kts 214°
2026-05-05 16:13 14.43420 -24.27980 35997 ft 431 kts 214°
2026-05-05 16:14 14.32946 -24.33946 35993 ft 432 kts 214°
2026-05-05 16:15 14.22416 -24.39937 35999 ft 432 kts 214°
2026-05-05 16:16 14.12002 -24.45855 35993 ft 433 kts 214°
2026-05-05 16:17 14.04112 -24.50336 35993 ft 433 kts 214°
2026-05-05 16:18 13.97076 -24.54328 35995 ft 433 kts 214°
2026-05-05 16:19 13.89133 -24.58833 35992 ft 434 kts 214°
2026-05-05 16:19 13.81211 -24.63319 35992 ft 434 kts 214°
2026-05-05 16:20 13.70644 -24.69302 35993 ft 435 kts 214°
2026-05-05 16:22 13.57382 -24.76804 35990 ft 435 kts 214°
2026-05-05 16:23 13.46790 -24.82788 35992 ft 435 kts 214°
2026-05-05 16:23 13.38808 -24.87293 35990 ft 436 kts 213°
2026-05-05 16:24 13.33503 -24.90285 35989 ft 436 kts 213°
2026-05-05 16:25 13.25524 -24.94782 35984 ft 436 kts 213°
2026-05-05 16:25 13.17562 -24.99267 35987 ft 436 kts 213°
2026-05-05 16:26 13.06965 -25.05231 35987 ft 437 kts 213°
2026-05-05 16:27 13.01623 -25.08235 35985 ft 437 kts 213°
2026-05-05 16:27 12.96312 -25.11220 35987 ft 437 kts 213°
2026-05-05 16:28 12.90971 -25.14221 35987 ft 437 kts 213°
2026-05-05 16:28 12.85656 -25.17206 35983 ft 437 kts 213°
2026-05-05 16:29 12.80302 -25.20210 35985 ft 438 kts 213°
2026-05-05 16:29 12.74982 -25.23195 35985 ft 438 kts 213°
2026-05-05 16:30 12.69612 -25.26206 35983 ft 439 kts 213°
2026-05-05 16:30 12.64281 -25.29194 35987 ft 439 kts 213°
2026-05-05 16:31 12.58916 -25.32199 35986 ft 439 kts 213°
2026-05-05 16:31 12.53563 -25.35196 35987 ft 440 kts 213°
2026-05-05 16:32 12.48209 -25.38192 35987 ft 440 kts 213°
2026-05-05 16:32 12.42829 -25.41202 35988 ft 440 kts 213°
2026-05-05 16:33 12.37479 -25.44193 35984 ft 440 kts 213°
2026-05-05 16:33 12.32114 -25.47191 35984 ft 441 kts 213°
2026-05-05 16:34 12.26702 -25.50214 35989 ft 441 kts 213°
2026-05-05 16:34 12.21343 -25.53206 35985 ft 441 kts 213°
2026-05-05 16:35 12.15953 -25.56214 35983 ft 441 kts 213°
2026-05-05 16:35 12.10543 -25.59231 35977 ft 442 kts 213°
2026-05-05 16:36 12.05177 -25.62223 35973 ft 442 kts 213°
2026-05-05 16:36 11.99776 -25.65233 35969 ft 443 kts 213°
2026-05-05 16:37 11.94384 -25.68236 35971 ft 443 kts 212°
2026-05-05 16:37 11.88954 -25.71260 35971 ft 443 kts 212°
2026-05-05 16:38 11.83573 -25.74255 35966 ft 443 kts 212°
2026-05-05 16:38 11.78166 -25.77262 35969 ft 443 kts 212°
2026-05-05 16:39 11.72737 -25.80281 35969 ft 444 kts 212°
2026-05-05 16:39 11.67314 -25.83295 35964 ft 444 kts 212°
2026-05-05 16:40 11.61883 -25.86312 35966 ft 444 kts 212°
2026-05-05 16:40 11.56456 -25.89326 35966 ft 444 kts 212°
2026-05-05 16:41 11.51044 -25.92329 35967 ft 445 kts 212°
2026-05-05 16:41 11.45603 -25.95348 35965 ft 445 kts 212°
2026-05-05 16:42 11.40154 -25.98369 35966 ft 445 kts 212°
2026-05-05 16:42 11.34711 -26.01386 35966 ft 446 kts 212°
2026-05-05 16:43 11.29257 -26.04408 35980 ft 446 kts 212°
2026-05-05 16:43 11.23823 -26.07417 35980 ft 446 kts 212°
2026-05-05 16:44 11.18377 -26.10431 35979 ft 446 kts 212°
2026-05-05 16:44 11.12928 -26.13446 35982 ft 446 kts 212°
2026-05-05 16:45 11.07481 -26.16459 35983 ft 446 kts 212°
2026-05-05 16:45 11.02017 -26.19480 35984 ft 447 kts 212°
2026-05-05 16:46 10.96550 -26.22501 35983 ft 447 kts 212°
2026-05-05 16:46 10.91078 -26.25524 35983 ft 447 kts 212°
2026-05-05 16:47 10.85640 -26.28526 35979 ft 447 kts 212°
2026-05-05 16:47 10.80163 -26.31549 35980 ft 447 kts 212°
2026-05-05 16:48 10.74685 -26.34571 35981 ft 447 kts 212°
2026-05-05 16:48 10.69236 -26.37576 35976 ft 447 kts 212°
2026-05-05 16:49 10.63748 -26.40601 35977 ft 447 kts 212°
2026-05-05 16:49 10.58292 -26.43608 35974 ft 447 kts 212°
2026-05-05 16:50 10.52836 -26.46613 35978 ft 447 kts 212°
2026-05-05 16:50 10.47356 -26.49630 35979 ft 447 kts 212°
2026-05-05 16:51 10.41913 -26.52625 35977 ft 447 kts 211°
2026-05-05 16:51 10.36435 -26.55639 35977 ft 447 kts 211°
2026-05-05 16:52 10.30945 -26.58658 35977 ft 447 kts 211°
2026-05-05 16:52 10.25490 -26.61657 35976 ft 447 kts 211°
2026-05-05 16:53 10.20035 -26.64655 35976 ft 447 kts 211°
2026-05-05 16:53 10.14570 -26.67657 35973 ft 447 kts 211°
2026-05-05 16:54 10.09066 -26.70677 35974 ft 451 kts 211°
2026-05-05 16:54 10.03539 -26.73713 35974 ft 453 kts 211°
2026-05-05 16:55 9.97995 -26.76755 35973 ft 453 kts 211°
2026-05-05 16:55 9.92435 -26.79804 35974 ft 453 kts 211°
2026-05-05 16:56 9.86877 -26.82850 35973 ft 454 kts 211°
2026-05-05 16:56 9.81318 -26.85896 35971 ft 454 kts 211°
2026-05-05 16:57 9.75782 -26.88929 35973 ft 454 kts 211°
2026-05-05 16:57 9.70218 -26.91975 35967 ft 454 kts 211°
2026-05-05 16:58 9.64690 -26.95001 35968 ft 454 kts 211°
2026-05-05 16:58 9.59124 -26.98046 35967 ft 454 kts 211°
2026-05-05 16:59 9.53541 -27.01099 35967 ft 455 kts 211°
2026-05-05 16:59 9.47968 -27.04146 35969 ft 455 kts 211°
2026-05-05 17:00 9.42424 -27.07175 35967 ft 455 kts 211°
2026-05-05 17:00 9.36845 -27.10223 35964 ft 455 kts 211°
2026-05-05 17:01 9.31272 -27.13266 35960 ft 455 kts 210°
2026-05-05 17:01 9.25707 -27.16304 35965 ft 455 kts 210°
2026-05-05 17:02 9.20144 -27.19340 35965 ft 456 kts 210°
2026-05-05 17:02 9.14552 -27.22391 35963 ft 455 kts 210°
2026-05-05 17:03 9.08970 -27.25434 35970 ft 455 kts 210°
2026-05-05 17:03 9.03422 -27.28460 35966 ft 455 kts 210°
2026-05-05 17:04 8.97839 -27.31502 35969 ft 455 kts 210°
2026-05-05 17:04 8.92245 -27.34549 35961 ft 456 kts 210°
2026-05-05 17:05 8.86684 -27.37576 35963 ft 456 kts 210°
2026-05-05 17:05 8.81080 -27.40626 35969 ft 456 kts 210°
2026-05-05 17:06 8.75491 -27.43667 35963 ft 457 kts 210°
2026-05-05 17:06 8.69894 -27.46712 35967 ft 457 kts 210°
2026-05-05 17:07 8.64318 -27.49743 35963 ft 457 kts 210°
2026-05-05 17:07 8.58706 -27.52794 35965 ft 457 kts 210°
2026-05-05 17:08 8.53133 -27.55822 35964 ft 458 kts 210°
2026-05-05 17:08 8.47511 -27.58876 35965 ft 458 kts 210°
2026-05-05 17:09 8.41921 -27.61912 35964 ft 458 kts 210°
2026-05-05 17:09 8.36290 -27.64969 35962 ft 458 kts 209°
2026-05-05 17:10 8.31614 -27.67506 35962 ft 458 kts 209°
2026-05-05 17:10 8.25070 -27.71056 35962 ft 458 kts 209°
2026-05-05 17:11 8.20396 -27.73591 35962 ft 458 kts 209°
2026-05-05 17:11 8.13848 -27.77141 35962 ft 458 kts 209°
2026-05-05 17:12 8.09170 -27.79676 35957 ft 459 kts 209°
2026-05-05 17:12 8.03516 -27.82740 35956 ft 459 kts 209°
2026-05-05 17:13 7.97917 -27.85771 35956 ft 459 kts 209°
2026-05-05 17:13 7.92275 -27.88826 35957 ft 459 kts 209°
2026-05-05 17:14 7.86678 -27.91856 35958 ft 459 kts 209°
2026-05-05 17:14 7.81039 -27.94907 35955 ft 459 kts 209°
2026-05-05 17:15 7.75429 -27.97942 35953 ft 459 kts 209°
2026-05-05 17:15 7.69778 -28.00998 35952 ft 460 kts 209°
2026-05-05 17:16 7.64140 -28.04046 35952 ft 460 kts 209°
2026-05-05 17:16 7.58492 -28.07099 35953 ft 460 kts 209°
2026-05-05 17:17 7.52885 -28.10129 35952 ft 460 kts 209°
2026-05-05 17:17 7.47256 -28.13169 35952 ft 460 kts 208°
2026-05-05 17:18 7.41591 -28.16229 35950 ft 460 kts 208°
2026-05-05 17:18 7.35939 -28.19280 35949 ft 461 kts 208°
2026-05-05 17:19 7.30329 -28.22308 35950 ft 461 kts 208°
2026-05-05 17:19 7.24674 -28.25358 35950 ft 461 kts 208°
2026-05-05 17:20 7.19021 -28.28406 35950 ft 461 kts 208°
2026-05-05 17:20 7.13383 -28.31446 35947 ft 461 kts 208°
2026-05-05 17:21 7.07728 -28.34495 35947 ft 461 kts 208°
2026-05-05 17:22 6.99244 -28.39066 35947 ft 461 kts 208°
2026-05-05 17:22 6.93555 -28.42130 35948 ft 461 kts 208°
2026-05-05 17:23 6.87897 -28.45177 35946 ft 461 kts 208°
2026-05-05 17:23 6.82248 -28.48218 35945 ft 462 kts 208°
2026-05-05 17:24 6.76595 -28.51260 35947 ft 462 kts 208°
2026-05-05 17:24 6.70927 -28.54309 35947 ft 462 kts 208°
2026-05-05 17:25 6.65272 -28.57351 35947 ft 462 kts 208°
2026-05-05 17:25 6.59615 -28.60393 35948 ft 462 kts 208°
2026-05-05 17:26 6.53953 -28.63438 35947 ft 462 kts 208°
2026-05-05 17:26 6.48279 -28.66487 35946 ft 462 kts 208°
2026-05-05 17:27 6.42584 -28.69547 35943 ft 462 kts 208°
2026-05-05 17:27 6.36917 -28.72592 35942 ft 462 kts 208°
2026-05-05 17:28 6.31252 -28.75634 35946 ft 462 kts 208°
2026-05-05 17:28 6.25595 -28.78671 35946 ft 463 kts 208°
2026-05-05 17:29 6.19934 -28.81710 35945 ft 463 kts 208°
2026-05-05 17:29 6.14226 -28.84773 35944 ft 463 kts 208°
2026-05-05 17:30 6.08569 -28.87809 35945 ft 463 kts 208°
2026-05-05 17:30 6.02883 -28.90859 35940 ft 463 kts 208°
2026-05-05 17:31 5.97195 -28.93909 35945 ft 463 kts 208°
2026-05-05 17:31 5.91537 -28.96942 35945 ft 463 kts 208°
2026-05-05 17:32 5.85845 -28.99993 35941 ft 463 kts 208°
2026-05-05 17:32 5.80174 -29.03032 35942 ft 463 kts 208°
2026-05-05 17:33 5.74506 -29.06069 35942 ft 463 kts 208°
2026-05-05 17:33 5.68815 -29.09117 35941 ft 463 kts 208°
2026-05-05 17:34 5.63159 -29.12147 35940 ft 463 kts 208°
2026-05-05 17:34 5.57464 -29.15196 35944 ft 463 kts 208°
2026-05-05 17:35 5.51802 -29.18226 35943 ft 463 kts 208°
2026-05-05 17:35 5.46112 -29.21272 35942 ft 463 kts 208°
2026-05-05 17:36 5.40425 -29.24315 35937 ft 463 kts 208°
2026-05-05 17:36 5.34749 -29.27351 35939 ft 463 kts 208°
2026-05-05 17:37 5.29077 -29.30385 35937 ft 463 kts 208°
2026-05-05 17:37 5.23383 -29.33430 35936 ft 463 kts 208°
2026-05-05 17:38 5.17726 -29.36454 35938 ft 463 kts 208°
2026-05-05 17:38 5.12022 -29.39503 35939 ft 463 kts 208°
2026-05-05 17:39 5.06362 -29.42528 35935 ft 463 kts 208°
2026-05-05 17:39 5.00650 -29.45579 35936 ft 463 kts 208°
2026-05-05 17:40 4.94963 -29.48617 35940 ft 464 kts 208°
2026-05-05 17:40 4.89260 -29.51663 35940 ft 464 kts 208°
2026-05-05 17:41 4.83586 -29.54692 35935 ft 464 kts 208°
2026-05-05 17:41 4.77887 -29.57735 35937 ft 464 kts 208°
2026-05-05 17:42 4.72208 -29.60767 35938 ft 464 kts 208°
2026-05-05 17:42 4.66496 -29.63815 35941 ft 464 kts 208°
2026-05-05 17:43 4.60818 -29.66844 35936 ft 464 kts 208°
2026-05-05 17:43 4.55106 -29.69892 35935 ft 464 kts 208°
2026-05-05 17:44 4.49396 -29.72937 35940 ft 464 kts 208°
2026-05-05 17:44 4.43721 -29.75963 35937 ft 464 kts 208°
2026-05-05 17:45 4.38018 -29.79004 35937 ft 464 kts 208°
2026-05-05 17:45 4.32333 -29.82035 35934 ft 464 kts 208°
2026-05-05 17:46 4.26599 -29.85091 35935 ft 464 kts 208°
2026-05-05 17:46 4.21065 -29.88040 35935 ft 464 kts 208°
2026-05-05 17:47 4.15350 -29.91085 35933 ft 465 kts 208°
2026-05-05 17:47 4.09633 -29.94131 35934 ft 465 kts 208°
2026-05-05 17:48 4.03947 -29.97160 35936 ft 465 kts 207°
2026-05-05 17:48 3.98233 -30.00202 35932 ft 465 kts 207°
2026-05-05 17:49 3.92548 -30.03224 35933 ft 464 kts 207°
2026-05-05 17:49 3.86813 -30.06272 35934 ft 465 kts 207°
2026-05-05 17:50 3.81131 -30.09293 35934 ft 464 kts 207°
2026-05-05 17:50 3.75412 -30.12332 35931 ft 464 kts 207°
2026-05-05 17:51 3.69694 -30.15371 35934 ft 464 kts 207°
2026-05-05 17:51 3.64062 -30.18363 35933 ft 464 kts 207°
2026-05-05 17:52 3.58339 -30.21403 35932 ft 464 kts 207°
2026-05-05 17:52 3.52662 -30.24418 35932 ft 464 kts 207°
2026-05-05 17:53 3.46948 -30.27453 35935 ft 464 kts 207°
2026-05-05 17:53 3.41273 -30.30466 35933 ft 464 kts 207°
2026-05-05 17:54 3.35553 -30.33503 35935 ft 464 kts 207°
2026-05-05 17:54 3.29870 -30.36520 35933 ft 464 kts 207°
2026-05-05 17:55 3.24157 -30.39552 35934 ft 464 kts 207°
2026-05-05 17:55 3.18451 -30.42581 35932 ft 464 kts 207°
2026-05-05 17:56 3.12734 -30.45614 35932 ft 464 kts 207°
2026-05-05 17:56 3.07242 -30.48528 35932 ft 464 kts 207°
2026-05-05 17:57 3.01511 -30.51569 35933 ft 465 kts 207°
2026-05-05 17:57 2.95780 -30.54608 35934 ft 465 kts 207°
2026-05-05 17:58 2.90087 -30.57628 35931 ft 465 kts 207°
2026-05-05 17:58 2.84355 -30.60668 35931 ft 466 kts 207°
2026-05-05 17:59 2.78648 -30.63694 35932 ft 466 kts 207°
2026-05-05 17:59 2.72930 -30.66726 35932 ft 466 kts 207°
2026-05-05 18:00 2.68146 -30.69263 35930 ft 466 kts 207°
2026-05-05 18:00 2.61478 -30.72798 35932 ft 466 kts 207°
2026-05-05 18:01 2.55741 -30.75838 35933 ft 465 kts 207°
2026-05-05 18:01 2.50059 -30.78850 35933 ft 465 kts 207°
2026-05-05 18:02 2.44329 -30.81886 35933 ft 465 kts 207°
2026-05-05 18:02 2.38617 -30.84913 35930 ft 465 kts 207°
2026-05-05 18:03 2.32894 -30.87946 35927 ft 465 kts 207°
2026-05-05 18:03 2.27177 -30.90975 35932 ft 464 kts 207°
2026-05-05 18:04 2.21505 -30.93979 35934 ft 464 kts 207°
2026-05-05 18:04 2.15798 -30.97001 35933 ft 464 kts 207°
2026-05-05 18:05 2.10103 -31.00016 35929 ft 464 kts 207°
2026-05-05 18:05 2.04394 -31.03038 35929 ft 464 kts 207°
2026-05-05 18:06 1.98693 -31.06056 35934 ft 464 kts 207°
2026-05-05 18:06 1.93062 -31.09037 35932 ft 464 kts 207°
2026-05-05 18:07 1.88311 -31.11551 35930 ft 464 kts 207°
2026-05-05 18:07 1.82618 -31.14564 35931 ft 463 kts 207°
2026-05-05 18:08 1.75981 -31.18077 35933 ft 464 kts 207°
2026-05-05 18:08 1.71223 -31.20595 35932 ft 463 kts 207°
2026-05-05 18:09 1.65501 -31.23622 35931 ft 463 kts 207°
2026-05-05 18:09 1.59843 -31.26616 35929 ft 463 kts 207°
2026-05-05 18:10 1.54148 -31.29629 35933 ft 463 kts 207°
2026-05-05 18:10 1.48470 -31.32633 35933 ft 463 kts 207°
2026-05-05 18:11 1.42760 -31.35654 35929 ft 462 kts 208°
2026-05-05 18:11 1.37062 -31.38668 35930 ft 463 kts 208°
2026-05-05 18:12 1.31375 -31.41676 35930 ft 463 kts 208°
2026-05-05 18:12 1.25705 -31.44675 35931 ft 463 kts 208°
2026-05-05 18:13 1.19992 -31.47697 35934 ft 463 kts 208°
2026-05-05 18:13 1.14334 -31.50689 35934 ft 463 kts 208°
2026-05-05 18:14 1.08627 -31.53707 35931 ft 463 kts 208°
2026-05-05 18:14 1.02960 -31.56704 35930 ft 463 kts 208°
2026-05-05 18:15 0.97258 -31.59720 35931 ft 463 kts 208°
2026-05-05 18:15 0.91563 -31.62731 35930 ft 463 kts 208°
2026-05-05 18:16 0.85900 -31.65726 35931 ft 463 kts 208°
2026-05-05 18:16 0.80204 -31.68737 35928 ft 463 kts 208°
2026-05-05 18:17 0.74510 -31.71748 35930 ft 463 kts 208°
2026-05-05 18:17 0.68795 -31.74769 35928 ft 463 kts 208°
2026-05-05 18:18 0.63131 -31.77764 35928 ft 463 kts 208°
2026-05-05 18:18 0.57424 -31.80781 35929 ft 463 kts 208°
2026-05-05 18:19 0.51749 -31.83781 35931 ft 462 kts 208°
2026-05-05 18:19 0.46070 -31.86783 35931 ft 462 kts 208°
2026-05-05 18:20 0.40403 -31.89780 35931 ft 461 kts 208°
2026-05-05 18:20 0.34697 -31.92798 35933 ft 461 kts 208°
2026-05-05 18:21 0.29039 -31.95791 35930 ft 461 kts 208°
2026-05-05 18:21 0.23356 -31.98797 35931 ft 461 kts 208°
2026-05-05 18:22 0.17725 -32.01775 35935 ft 461 kts 208°
2026-05-05 18:22 0.12039 -32.04783 35933 ft 460 kts 208°
2026-05-05 18:23 0.06404 -32.07763 35930 ft 460 kts 208°
2026-05-05 18:23 0.00742 -32.10758 35931 ft 460 kts 208°
2026-05-05 18:24 -0.04920 -32.13753 35934 ft 460 kts 208°
2026-05-05 18:24 -0.10558 -32.16735 35933 ft 460 kts 208°
2026-05-05 18:25 -0.16197 -32.19718 35932 ft 459 kts 208°
2026-05-05 18:25 -0.21849 -32.22707 35931 ft 459 kts 208°
2026-05-05 18:26 -0.27510 -32.25701 35932 ft 459 kts 208°
2026-05-05 18:26 -0.33160 -32.28690 35934 ft 459 kts 208°
2026-05-05 18:27 -0.38783 -32.31664 35932 ft 459 kts 208°
2026-05-05 18:27 -0.44444 -32.34659 35933 ft 459 kts 208°
2026-05-05 18:28 -0.52894 -32.39129 35931 ft 460 kts 208°
2026-05-05 18:28 -0.58562 -32.42126 35933 ft 460 kts 208°
2026-05-05 18:29 -0.64201 -32.45109 35935 ft 460 kts 208°
2026-05-05 18:29 -0.69881 -32.48114 35933 ft 460 kts 208°
2026-05-05 18:30 -0.75507 -32.51090 35936 ft 461 kts 208°
2026-05-05 18:30 -0.81171 -32.54087 35938 ft 462 kts 208°
2026-05-05 18:31 -0.86858 -32.57096 35938 ft 462 kts 208°
2026-05-05 18:31 -0.92552 -32.60108 35935 ft 463 kts 208°
2026-05-05 18:32 -0.98253 -32.63125 35936 ft 463 kts 208°
2026-05-05 18:32 -1.03937 -32.66132 35937 ft 464 kts 208°
2026-05-05 18:33 -1.09656 -32.69158 35937 ft 464 kts 208°
2026-05-05 18:33 -1.15332 -32.72161 35943 ft 464 kts 208°
2026-05-05 18:34 -1.21063 -32.75194 35943 ft 465 kts 208°
2026-05-05 18:34 -1.26792 -32.78226 35938 ft 465 kts 208°
2026-05-05 18:35 -1.32490 -32.81241 35939 ft 465 kts 208°
2026-05-05 18:35 -1.38219 -32.84274 35939 ft 466 kts 208°
2026-05-05 18:36 -1.43955 -32.87314 35939 ft 466 kts 208°
2026-05-05 18:36 -1.49686 -32.90352 35940 ft 467 kts 208°
2026-05-05 18:37 -1.55405 -32.93383 35940 ft 467 kts 208°
2026-05-05 18:37 -1.61149 -32.96427 35941 ft 467 kts 208°
2026-05-05 18:38 -1.66867 -32.99458 35942 ft 467 kts 209°
2026-05-05 18:38 -1.72605 -33.02500 35939 ft 467 kts 209°
2026-05-05 18:39 -1.78367 -33.05555 35939 ft 467 kts 209°
2026-05-05 18:39 -1.84078 -33.08583 35940 ft 467 kts 209°
2026-05-05 18:40 -1.89816 -33.11626 35941 ft 467 kts 209°
2026-05-05 18:40 -1.95586 -33.14685 35939 ft 468 kts 209°
2026-05-05 18:41 -2.01309 -33.17720 35940 ft 468 kts 209°
2026-05-05 18:41 -2.07083 -33.20783 35942 ft 468 kts 209°
2026-05-05 18:42 -2.12831 -33.23831 35942 ft 468 kts 209°
2026-05-05 18:42 -2.18563 -33.26872 35944 ft 468 kts 209°
2026-05-05 18:43 -2.24325 -33.29929 35943 ft 468 kts 209°
2026-05-05 18:43 -2.30055 -33.32969 35942 ft 468 kts 209°
2026-05-05 18:44 -2.35786 -33.36009 35941 ft 467 kts 210°
2026-05-05 18:44 -2.41540 -33.39063 35944 ft 467 kts 210°
2026-05-05 18:45 -2.47295 -33.42117 35943 ft 467 kts 210°
2026-05-05 18:45 -2.53031 -33.45161 35942 ft 467 kts 210°
2026-05-05 18:46 -2.58753 -33.48199 35943 ft 467 kts 210°
2026-05-05 18:46 -2.64490 -33.51244 35943 ft 467 kts 210°
2026-05-05 18:47 -2.70237 -33.54285 35944 ft 467 kts 210°
2026-05-05 18:47 -2.76007 -33.57335 35942 ft 467 kts 210°
2026-05-05 18:48 -2.81730 -33.60363 35942 ft 467 kts 210°
2026-05-05 18:48 -2.87461 -33.63395 35943 ft 467 kts 210°
2026-05-05 18:49 -2.93232 -33.66448 35945 ft 467 kts 210°
2026-05-05 18:49 -2.98952 -33.69476 35944 ft 466 kts 210°
2026-05-05 18:50 -3.04689 -33.72512 35944 ft 467 kts 210°
2026-05-05 18:50 -3.10459 -33.75567 35944 ft 467 kts 210°
2026-05-05 18:51 -3.16172 -33.78591 35945 ft 467 kts 210°
2026-05-05 18:51 -3.21887 -33.81617 35943 ft 466 kts 210°
2026-05-05 18:52 -3.27646 -33.84667 35943 ft 466 kts 210°
2026-05-05 18:52 -3.33391 -33.87709 35944 ft 466 kts 210°
2026-05-05 18:53 -3.39086 -33.90726 35943 ft 466 kts 210°
2026-05-05 18:53 -3.44835 -33.93772 35944 ft 466 kts 210°
2026-05-05 18:54 -3.50547 -33.96798 35945 ft 465 kts 210°
2026-05-05 18:54 -3.56267 -33.99829 35944 ft 465 kts 210°
2026-05-05 18:55 -3.61973 -34.02853 35942 ft 466 kts 210°
2026-05-05 18:55 -3.67679 -34.05881 35944 ft 466 kts 210°
2026-05-05 18:56 -3.73416 -34.08931 35946 ft 466 kts 210°
2026-05-05 18:56 -3.79128 -34.11967 35947 ft 466 kts 210°
2026-05-05 18:57 -3.84864 -34.15016 35947 ft 466 kts 210°
2026-05-05 18:57 -3.90565 -34.18046 35944 ft 466 kts 210°
2026-05-05 18:58 -3.96305 -34.21099 35943 ft 466 kts 210°
2026-05-05 18:58 -4.02013 -34.24134 35943 ft 466 kts 210°
2026-05-05 18:59 -4.06791 -34.26675 35943 ft 466 kts 210°
2026-05-05 18:59 -4.12488 -34.29706 35946 ft 466 kts 210°
2026-05-05 19:00 -4.18233 -34.32763 35944 ft 466 kts 210°
2026-05-05 19:00 -4.23939 -34.35799 35946 ft 466 kts 210°
2026-05-05 19:01 -4.29687 -34.38858 35948 ft 466 kts 210°
2026-05-05 19:01 -4.35427 -34.41913 35943 ft 466 kts 210°
2026-05-05 19:02 -4.41128 -34.44948 35945 ft 466 kts 210°
2026-05-05 19:02 -4.46851 -34.47996 35946 ft 466 kts 210°
2026-05-05 19:03 -4.52596 -34.51056 35946 ft 466 kts 210°
2026-05-05 19:03 -4.58298 -34.54093 35946 ft 466 kts 210°
2026-05-05 19:04 -4.64010 -34.57136 35946 ft 466 kts 210°
2026-05-05 19:04 -4.69754 -34.60198 35949 ft 466 kts 210°
2026-05-05 19:05 -4.75454 -34.63235 35944 ft 466 kts 210°
2026-05-05 19:05 -4.81197 -34.66297 35945 ft 466 kts 210°
2026-05-05 19:06 -4.86904 -34.69340 35943 ft 466 kts 210°
2026-05-05 19:06 -4.92646 -34.72402 35944 ft 466 kts 210°
2026-05-05 19:07 -4.98355 -34.75447 35944 ft 467 kts 210°
2026-05-05 19:07 -5.04076 -34.78500 35943 ft 467 kts 210°
2026-05-05 19:08 -5.09837 -34.81574 35945 ft 467 kts 210°
2026-05-05 19:08 -5.15550 -34.84623 35949 ft 466 kts 210°
2026-05-05 19:09 -5.21259 -34.87670 35947 ft 466 kts 210°
2026-05-05 19:09 -5.27008 -34.90740 35942 ft 467 kts 210°
2026-05-05 19:10 -5.32684 -34.93771 35944 ft 467 kts 210°
2026-05-05 19:10 -5.38467 -34.96861 35948 ft 467 kts 210°
2026-05-05 19:11 -5.44181 -34.99913 35947 ft 467 kts 210°
2026-05-05 19:11 -5.49920 -35.02980 35948 ft 467 kts 210°
2026-05-05 19:12 -5.55662 -35.06048 35948 ft 467 kts 210°
2026-05-05 19:12 -5.61374 -35.09103 35945 ft 468 kts 210°
2026-05-05 19:13 -5.67144 -35.12188 35943 ft 468 kts 210°
2026-05-05 19:13 -5.72873 -35.15253 35941 ft 468 kts 210°
2026-05-05 19:14 -5.78644 -35.18339 35941 ft 469 kts 210°
2026-05-05 19:14 -5.84368 -35.21402 35942 ft 469 kts 210°
2026-05-05 19:15 -5.90146 -35.24494 35939 ft 467 kts 210°
2026-05-05 19:15 -5.95758 -35.27847 35938 ft 469 kts 213°
2026-05-05 19:16 -6.01306 -35.31214 35941 ft 469 kts 213°
2026-05-05 19:16 -6.06858 -35.34573 35941 ft 469 kts 213°
2026-05-05 19:17 -6.12461 -35.37966 35947 ft 469 kts 213°
2026-05-05 19:17 -6.17087 -35.40767 35949 ft 469 kts 213°
2026-05-05 19:18 -6.22676 -35.44153 35951 ft 469 kts 213°
2026-05-05 19:18 -6.28259 -35.47537 35950 ft 470 kts 213°
2026-05-05 19:19 -6.33847 -35.50924 35951 ft 470 kts 213°
2026-05-05 19:19 -6.39413 -35.54298 35951 ft 470 kts 213°
2026-05-05 19:20 -6.44888 -35.57619 35955 ft 470 kts 213°
2026-05-05 19:20 -6.50356 -35.60935 35960 ft 470 kts 213°
2026-05-05 19:21 -6.55776 -35.64223 35959 ft 469 kts 213°
2026-05-05 19:21 -6.61246 -35.67543 35964 ft 470 kts 213°
2026-05-05 19:22 -6.66828 -35.70932 35966 ft 469 kts 213°
2026-05-05 19:22 -6.72432 -35.74335 35972 ft 470 kts 213°
2026-05-05 19:23 -6.78020 -35.77730 35976 ft 470 kts 213°
2026-05-05 19:23 -6.83586 -35.81111 35977 ft 470 kts 213°
2026-05-05 19:24 -6.89189 -35.84517 35976 ft 470 kts 213°
2026-05-05 19:24 -6.94773 -35.87911 35985 ft 470 kts 213°
2026-05-05 19:25 -7.00387 -35.91326 35995 ft 470 kts 213°
2026-05-05 19:25 -7.05975 -35.94725 36004 ft 470 kts 213°
2026-05-05 19:26 -7.11583 -35.98138 36005 ft 470 kts 213°
2026-05-05 19:26 -7.17182 -36.01546 36012 ft 470 kts 213°
2026-05-05 19:27 -7.22765 -36.04945 36012 ft 470 kts 213°
2026-05-05 19:27 -7.28336 -36.08338 36007 ft 470 kts 213°
2026-05-05 19:28 -7.33926 -36.11743 36001 ft 470 kts 213°
2026-05-05 19:28 -7.39534 -36.15161 35992 ft 469 kts 213°
2026-05-05 19:29 -7.45116 -36.18563 35981 ft 469 kts 213°
2026-05-05 19:29 -7.50704 -36.21970 35977 ft 469 kts 213°
2026-05-05 19:30 -7.56261 -36.25359 35976 ft 469 kts 213°
2026-05-05 19:30 -7.61854 -36.28770 35978 ft 469 kts 213°
2026-05-05 19:31 -7.67452 -36.32187 35979 ft 469 kts 213°
2026-05-05 19:31 -7.72836 -36.35474 35984 ft 469 kts 213°
2026-05-05 19:32 -7.78410 -36.38878 35984 ft 469 kts 213°
2026-05-05 19:32 -7.84014 -36.42301 35986 ft 469 kts 213°
2026-05-05 19:33 -7.89584 -36.45704 35991 ft 469 kts 213°
2026-05-05 19:33 -7.95155 -36.49110 35992 ft 469 kts 213°
2026-05-05 19:34 -8.00724 -36.52516 35992 ft 469 kts 213°
2026-05-05 19:35 -8.09077 -36.57626 36001 ft 469 kts 213°
2026-05-05 19:35 -8.14637 -36.61029 36008 ft 468 kts 213°
2026-05-05 19:36 -8.20224 -36.64448 36010 ft 469 kts 213°
2026-05-05 19:36 -8.25811 -36.67869 36011 ft 469 kts 213°
2026-05-05 19:37 -8.31319 -36.71243 36014 ft 469 kts 213°
2026-05-05 19:37 -8.36902 -36.74665 36016 ft 469 kts 213°
2026-05-05 19:38 -8.42460 -36.78072 36010 ft 469 kts 213°
2026-05-05 19:38 -8.48051 -36.81501 36015 ft 469 kts 213°
2026-05-05 19:39 -8.53627 -36.84922 36016 ft 469 kts 213°
2026-05-05 19:39 -8.59175 -36.88326 36015 ft 469 kts 213°
2026-05-05 19:40 -8.64760 -36.91754 36015 ft 469 kts 213°
2026-05-05 19:40 -8.70336 -36.95178 36016 ft 469 kts 213°
2026-05-05 19:41 -8.75897 -36.98594 36013 ft 468 kts 213°
2026-05-05 19:41 -8.81435 -37.01997 36012 ft 468 kts 213°
2026-05-05 19:42 -8.86903 -37.05358 36009 ft 468 kts 213°
2026-05-05 19:42 -8.92461 -37.08776 36010 ft 468 kts 213°
2026-05-05 19:43 -8.98037 -37.12206 36009 ft 468 kts 213°
2026-05-05 19:43 -9.03577 -37.15615 36007 ft 467 kts 213°
2026-05-05 19:44 -9.09138 -37.19039 36004 ft 467 kts 213°
2026-05-05 19:44 -9.14669 -37.22444 36004 ft 467 kts 213°
2026-05-05 19:45 -9.20231 -37.25871 36004 ft 467 kts 213°
2026-05-05 19:45 -9.25759 -37.29278 36006 ft 467 kts 214°
2026-05-05 19:46 -9.31319 -37.32706 36004 ft 466 kts 214°
2026-05-05 19:46 -9.36870 -37.36129 36001 ft 466 kts 214°
2026-05-05 19:47 -9.42343 -37.39507 36002 ft 466 kts 214°
2026-05-05 19:47 -9.47898 -37.42935 35997 ft 466 kts 214°
2026-05-05 19:48 -9.53418 -37.46343 35999 ft 466 kts 214°
2026-05-05 19:48 -9.58949 -37.49759 35999 ft 466 kts 214°
2026-05-05 19:49 -9.64491 -37.53184 35999 ft 466 kts 214°
2026-05-05 19:49 -9.70026 -37.56605 35998 ft 466 kts 214°
2026-05-05 19:50 -9.75566 -37.60031 35995 ft 466 kts 214°
2026-05-05 19:50 -9.81069 -37.63436 36000 ft 466 kts 214°
2026-05-05 19:51 -9.86585 -37.66850 35999 ft 466 kts 214°
2026-05-05 19:51 -9.92126 -37.70281 36003 ft 466 kts 214°
2026-05-05 19:52 -9.97664 -37.73711 36007 ft 465 kts 214°
2026-05-05 19:52 -10.02259 -37.76558 36009 ft 465 kts 214°
2026-05-05 19:53 -10.08695 -37.80547 36012 ft 465 kts 214°
2026-05-05 19:53 -10.13297 -37.83401 36011 ft 465 kts 214°
2026-05-05 19:54 -10.18822 -37.86829 36014 ft 465 kts 214°
2026-05-05 19:54 -10.24350 -37.90259 36018 ft 465 kts 214°
2026-05-05 19:55 -10.29845 -37.93672 36018 ft 465 kts 214°
2026-05-05 19:55 -10.35369 -37.97102 36024 ft 465 kts 214°
2026-05-05 19:56 -10.40891 -38.00533 36020 ft 465 kts 214°
2026-05-05 19:56 -10.46372 -38.03941 36024 ft 465 kts 214°
2026-05-05 19:57 -10.51886 -38.07370 36020 ft 464 kts 214°
2026-05-05 19:57 -10.57398 -38.10799 36030 ft 464 kts 214°
2026-05-05 19:58 -10.62915 -38.14233 36035 ft 464 kts 214°
2026-05-05 19:58 -10.68420 -38.17661 36039 ft 464 kts 214°
2026-05-05 19:59 -10.73882 -38.21064 36042 ft 463 kts 214°
2026-05-05 19:59 -10.79388 -38.24495 36044 ft 463 kts 214°
2026-05-05 20:00 -10.84886 -38.27924 36045 ft 463 kts 214°
2026-05-05 20:00 -10.90385 -38.31354 36044 ft 463 kts 214°
2026-05-05 20:01 -10.95875 -38.34780 36026 ft 463 kts 214°
2026-05-05 20:01 -11.01368 -38.38210 36023 ft 463 kts 214°
2026-05-05 20:02 -11.06818 -38.41614 36024 ft 462 kts 215°
2026-05-05 20:02 -11.12308 -38.45045 36029 ft 462 kts 215°
2026-05-05 20:03 -11.17795 -38.48474 36036 ft 462 kts 215°
2026-05-05 20:03 -11.23275 -38.51902 36037 ft 462 kts 215°
2026-05-05 20:04 -11.28713 -38.55305 36048 ft 461 kts 215°
2026-05-05 20:04 -11.34182 -38.58728 36058 ft 461 kts 215°
2026-05-05 20:05 -11.39653 -38.62155 36046 ft 461 kts 215°
2026-05-05 20:05 -11.45132 -38.65588 36047 ft 461 kts 215°
2026-05-05 20:06 -11.50570 -38.68997 36050 ft 461 kts 215°
2026-05-05 20:06 -11.56039 -38.72427 36049 ft 460 kts 215°
2026-05-05 20:07 -11.61494 -38.75850 36054 ft 460 kts 215°
2026-05-05 20:07 -11.66918 -38.79254 36061 ft 460 kts 215°
2026-05-05 20:08 -11.72385 -38.82688 36061 ft 460 kts 215°
2026-05-05 20:08 -11.77805 -38.86094 36060 ft 459 kts 215°
2026-05-05 20:09 -11.83253 -38.89519 36062 ft 459 kts 215°
2026-05-05 20:09 -11.88666 -38.92923 36064 ft 459 kts 215°
2026-05-05 20:10 -11.94110 -38.96348 36064 ft 459 kts 215°
2026-05-05 20:10 -11.99541 -38.99767 36065 ft 459 kts 215°
2026-05-05 20:11 -12.04951 -39.03175 36064 ft 458 kts 215°
2026-05-05 20:11 -12.10385 -39.06600 36067 ft 458 kts 215°
2026-05-05 20:12 -12.15791 -39.10007 36059 ft 458 kts 215°
2026-05-05 20:12 -12.21206 -39.13423 36061 ft 458 kts 215°
2026-05-05 20:13 -12.26648 -39.16856 36067 ft 458 kts 215°
2026-05-05 20:13 -12.32055 -39.20270 36063 ft 457 kts 215°
2026-05-05 20:14 -12.37477 -39.23694 36064 ft 457 kts 215°
2026-05-05 20:14 -12.42859 -39.27095 36063 ft 457 kts 215°
2026-05-05 20:15 -12.48286 -39.30527 36066 ft 457 kts 215°
2026-05-05 20:15 -12.53665 -39.33930 36069 ft 456 kts 215°
2026-05-05 20:16 -12.59065 -39.37348 36063 ft 456 kts 215°
2026-05-05 20:16 -12.64478 -39.40775 36072 ft 456 kts 215°
2026-05-05 20:17 -12.69883 -39.44199 36073 ft 456 kts 215°
2026-05-05 20:17 -12.75249 -39.47601 36073 ft 456 kts 215°
2026-05-05 20:18 -12.80658 -39.51031 36072 ft 456 kts 215°
2026-05-05 20:18 -12.86019 -39.54433 36076 ft 455 kts 215°
2026-05-05 20:19 -12.91393 -39.57845 36080 ft 455 kts 215°
2026-05-05 20:19 -12.96786 -39.61271 36080 ft 455 kts 215°
2026-05-05 20:20 -13.02145 -39.64677 36090 ft 455 kts 215°
2026-05-05 20:20 -13.07538 -39.68105 36086 ft 455 kts 215°
2026-05-05 20:21 -13.12912 -39.71524 36093 ft 455 kts 215°
2026-05-05 20:21 -13.18266 -39.74930 36099 ft 454 kts 215°
2026-05-05 20:22 -13.23648 -39.78357 36101 ft 455 kts 215°
2026-05-05 20:22 -13.29022 -39.81783 36106 ft 454 kts 215°
2026-05-05 20:23 -13.34366 -39.85189 36108 ft 454 kts 215°
2026-05-05 20:23 -13.39741 -39.88617 36102 ft 454 kts 214°
2026-05-05 20:24 -13.45114 -39.92046 36107 ft 454 kts 215°
2026-05-05 20:24 -13.50449 -39.95453 36107 ft 454 kts 214°
2026-05-05 20:25 -13.55818 -39.98883 36110 ft 454 kts 214°
2026-05-05 20:25 -13.61145 -40.02288 36108 ft 453 kts 214°
2026-05-05 20:26 -13.66511 -40.05720 36101 ft 453 kts 214°
2026-05-05 20:26 -13.71873 -40.09150 36103 ft 453 kts 214°
2026-05-05 20:27 -13.77193 -40.12557 36107 ft 453 kts 214°
2026-05-05 20:27 -13.82537 -40.15980 36107 ft 453 kts 214°
2026-05-05 20:28 -13.87891 -40.19413 36083 ft 453 kts 214°
2026-05-05 20:28 -13.93219 -40.22830 36090 ft 453 kts 214°
2026-05-05 20:29 -13.98564 -40.26258 36094 ft 452 kts 214°
2026-05-05 20:29 -14.03884 -40.29674 36113 ft 451 kts 214°
2026-05-05 20:30 -14.09201 -40.33089 36120 ft 452 kts 214°
2026-05-05 20:30 -14.14517 -40.36505 36122 ft 452 kts 214°
2026-05-05 20:31 -14.19831 -40.39922 36101 ft 451 kts 214°
2026-05-05 20:31 -14.25174 -40.43360 36095 ft 452 kts 214°
2026-05-05 20:32 -14.30498 -40.46788 36107 ft 451 kts 214°
2026-05-05 20:32 -14.35798 -40.50202 36113 ft 450 kts 214°
2026-05-05 20:33 -14.41114 -40.53628 36115 ft 450 kts 214°
2026-05-05 20:33 -14.46393 -40.57033 36120 ft 450 kts 214°
2026-05-05 20:34 -14.51707 -40.60461 36125 ft 449 kts 214°
2026-05-05 20:34 -14.57012 -40.63887 36128 ft 448 kts 214°
2026-05-05 20:35 -14.62277 -40.67288 36133 ft 449 kts 214°
2026-05-05 20:35 -14.67563 -40.70704 36131 ft 448 kts 214°
2026-05-05 20:36 -14.72852 -40.74124 36134 ft 448 kts 214°
2026-05-05 20:36 -14.78139 -40.77546 36135 ft 447 kts 214°
2026-05-05 20:37 -14.83378 -40.80939 36138 ft 447 kts 214°
2026-05-05 20:37 -14.88661 -40.84361 36138 ft 447 kts 214°
2026-05-05 20:38 -14.93930 -40.87777 36138 ft 446 kts 214°
2026-05-05 20:38 -14.99192 -40.91190 36140 ft 446 kts 214°
2026-05-05 20:39 -15.04419 -40.94583 36143 ft 446 kts 214°
2026-05-05 20:39 -15.09691 -40.98006 36145 ft 446 kts 214°
2026-05-05 20:40 -15.14913 -41.01400 36147 ft 445 kts 214°
2026-05-05 20:40 -15.20170 -41.04817 36145 ft 445 kts 214°
2026-05-05 20:41 -15.25411 -41.08227 36149 ft 445 kts 214°
2026-05-05 20:41 -15.30628 -41.11623 36147 ft 445 kts 214°
2026-05-05 20:42 -15.35613 -41.14870 36151 ft 445 kts 214°
2026-05-05 20:42 -15.40870 -41.18296 36154 ft 445 kts 214°
2026-05-05 20:43 -15.46084 -41.21696 36158 ft 445 kts 214°
2026-05-05 20:43 -15.51307 -41.25104 36159 ft 444 kts 214°
2026-05-05 20:44 -15.56459 -41.28467 36158 ft 444 kts 214°
2026-05-05 20:44 -15.61671 -41.31872 36160 ft 444 kts 214°
2026-05-05 20:45 -15.69537 -41.37015 36162 ft 444 kts 214°
2026-05-05 20:45 -15.74734 -41.40414 36161 ft 444 kts 214°
2026-05-05 20:46 -15.79977 -41.43847 36165 ft 444 kts 214°
2026-05-05 20:46 -15.85201 -41.47269 36167 ft 444 kts 214°
2026-05-05 20:47 -15.90433 -41.50700 36168 ft 444 kts 214°
2026-05-05 20:47 -15.95662 -41.54128 36169 ft 444 kts 214°
2026-05-05 20:48 -16.00843 -41.57529 36172 ft 444 kts 214°
2026-05-05 20:48 -16.05203 -41.60392 36169 ft 443 kts 214°
2026-05-05 20:49 -16.11285 -41.64388 36165 ft 443 kts 214°
2026-05-05 20:49 -16.15624 -41.67242 36165 ft 443 kts 214°
2026-05-05 20:50 -16.20849 -41.70679 36165 ft 443 kts 214°
2026-05-05 20:50 -16.26047 -41.74101 36161 ft 443 kts 214°
2026-05-05 20:51 -16.31242 -41.77522 36159 ft 444 kts 214°
2026-05-05 20:51 -16.36455 -41.80958 36158 ft 443 kts 214°
2026-05-05 20:52 -16.41676 -41.84402 36156 ft 443 kts 214°
2026-05-05 20:52 -16.46864 -41.87827 36155 ft 443 kts 214°
2026-05-05 20:53 -16.52077 -41.91272 36154 ft 443 kts 214°
2026-05-05 20:53 -16.57267 -41.94701 36152 ft 443 kts 214°
2026-05-05 20:54 -16.62467 -41.98138 36147 ft 443 kts 214°
2026-05-05 20:54 -16.67683 -42.01589 36150 ft 443 kts 214°
2026-05-05 20:55 -16.72876 -42.05027 36148 ft 443 kts 214°
2026-05-05 20:55 -16.78071 -42.08471 36145 ft 443 kts 214°
2026-05-05 20:56 -16.83277 -42.11922 36150 ft 443 kts 214°
2026-05-05 20:56 -16.88353 -42.15290 36149 ft 443 kts 214°
2026-05-05 20:57 -16.93569 -42.18753 36145 ft 443 kts 214°
2026-05-05 20:57 -16.98754 -42.22198 36147 ft 443 kts 214°
2026-05-05 20:58 -17.03946 -42.25649 36151 ft 443 kts 214°
2026-05-05 20:58 -17.09170 -42.29124 36159 ft 443 kts 214°
2026-05-05 20:59 -17.14335 -42.32563 36159 ft 443 kts 214°
2026-05-05 20:59 -17.19547 -42.36033 36164 ft 443 kts 214°
2026-05-05 21:00 -17.24730 -42.39488 36168 ft 443 kts 214°
2026-05-05 21:00 -17.29915 -42.42947 36172 ft 443 kts 214°
2026-05-05 21:01 -17.35110 -42.46414 36174 ft 443 kts 214°
2026-05-05 21:01 -17.40288 -42.49873 36178 ft 442 kts 214°
2026-05-05 21:02 -17.45339 -42.53248 36177 ft 442 kts 214°
2026-05-05 21:02 -17.50500 -42.56699 36180 ft 441 kts 214°
2026-05-05 21:03 -17.55700 -42.60180 36186 ft 442 kts 214°
2026-05-05 21:03 -17.60879 -42.63648 36187 ft 441 kts 214°
2026-05-05 21:04 -17.66041 -42.67108 36189 ft 441 kts 214°
2026-05-05 21:04 -17.71209 -42.70574 36195 ft 442 kts 214°
2026-05-05 21:05 -17.76352 -42.74026 36192 ft 441 kts 214°
2026-05-05 21:05 -17.81538 -42.77508 36194 ft 441 kts 214°
2026-05-05 21:06 -17.86671 -42.80957 36197 ft 440 kts 214°
2026-05-05 21:06 -17.91837 -42.84433 36196 ft 441 kts 214°
2026-05-05 21:07 -17.96986 -42.87898 36196 ft 441 kts 214°
2026-05-05 21:07 -18.02154 -42.91378 36199 ft 440 kts 214°
2026-05-05 21:08 -18.07307 -42.94851 36198 ft 440 kts 214°
2026-05-05 21:08 -18.12476 -42.98337 36199 ft 440 kts 214°
2026-05-05 21:09 -18.17603 -43.01797 36203 ft 440 kts 214°
2026-05-05 21:09 -18.22740 -43.05267 36202 ft 439 kts 214°
2026-05-05 21:10 -18.27889 -43.08746 36205 ft 439 kts 214°
2026-05-05 21:10 -18.33049 -43.12237 36208 ft 439 kts 214°
2026-05-05 21:11 -18.38188 -43.15715 36212 ft 439 kts 214°
2026-05-05 21:11 -18.43131 -43.19063 36213 ft 439 kts 214°
2026-05-05 21:12 -18.48281 -43.22554 36212 ft 439 kts 214°
2026-05-05 21:12 -18.53397 -43.26024 36209 ft 438 kts 214°
2026-05-05 21:13 -18.58530 -43.29506 36195 ft 438 kts 214°
2026-05-05 21:13 -18.63645 -43.32981 36195 ft 438 kts 214°
2026-05-05 21:14 -18.68788 -43.36477 36208 ft 438 kts 214°
2026-05-05 21:14 -18.73893 -43.39950 36201 ft 438 kts 214°
2026-05-05 21:15 -18.79026 -43.43444 36197 ft 438 kts 214°
2026-05-05 21:15 -18.84113 -43.46908 36202 ft 438 kts 214°
2026-05-05 21:16 -18.89254 -43.50414 36198 ft 438 kts 214°
2026-05-05 21:16 -18.94340 -43.53884 36197 ft 437 kts 214°
2026-05-05 21:17 -18.99450 -43.57374 36200 ft 437 kts 214°
2026-05-05 21:17 -19.04579 -43.60878 36202 ft 437 kts 214°
2026-05-05 21:18 -19.09637 -43.64337 36201 ft 437 kts 214°
2026-05-05 21:18 -19.14647 -43.67765 36197 ft 437 kts 214°
2026-05-05 21:19 -19.19721 -43.71239 36197 ft 436 kts 214°
2026-05-05 21:19 -19.24835 -43.74745 36195 ft 436 kts 214°
2026-05-05 21:20 -19.29922 -43.78232 36195 ft 436 kts 214°
2026-05-05 21:20 -19.34993 -43.81713 36203 ft 436 kts 214°
2026-05-05 21:21 -19.40086 -43.85211 36222 ft 436 kts 214°
2026-05-05 21:21 -19.45184 -43.88715 36240 ft 436 kts 214°
2026-05-05 21:22 -19.50235 -43.92190 36253 ft 435 kts 214°
2026-05-05 21:22 -19.55311 -43.95684 36265 ft 435 kts 214°
2026-05-05 21:23 -19.60402 -43.99192 36266 ft 435 kts 214°
2026-05-05 21:23 -19.65440 -44.02665 36266 ft 434 kts 214°
2026-05-05 21:24 -19.70458 -44.06127 36260 ft 434 kts 214°
2026-05-05 21:24 -19.75531 -44.09629 36247 ft 434 kts 214°
2026-05-05 21:25 -19.80571 -44.13112 36242 ft 434 kts 214°
2026-05-05 21:25 -19.85605 -44.16594 36237 ft 434 kts 214°
2026-05-05 21:26 -19.90661 -44.20094 36227 ft 433 kts 214°
2026-05-05 21:26 -19.95722 -44.23600 36212 ft 433 kts 214°
2026-05-05 21:27 -20.00643 -44.27010 36200 ft 433 kts 214°
2026-05-05 21:27 -20.05673 -44.30499 36198 ft 433 kts 214°
2026-05-05 21:28 -20.10721 -44.34004 36201 ft 433 kts 214°
2026-05-05 21:28 -20.15770 -44.37512 36196 ft 433 kts 214°
2026-05-05 21:29 -20.20787 -44.41000 36201 ft 433 kts 214°
2026-05-05 21:29 -20.25835 -44.44513 36205 ft 432 kts 214°
2026-05-05 21:30 -20.30869 -44.48019 36203 ft 433 kts 214°
2026-05-05 21:30 -20.35900 -44.51525 36202 ft 433 kts 214°
2026-05-05 21:31 -20.40944 -44.55044 36204 ft 433 kts 214°
2026-05-05 21:31 -20.45975 -44.58555 36207 ft 433 kts 214°
2026-05-05 21:32 -20.51020 -44.62080 36205 ft 433 kts 214°
2026-05-05 21:32 -20.56044 -44.65593 36206 ft 433 kts 214°
2026-05-05 21:33 -20.61083 -44.69118 36205 ft 433 kts 214°
2026-05-05 21:33 -20.66135 -44.72657 36206 ft 433 kts 214°
2026-05-05 21:34 -20.71159 -44.76178 36204 ft 433 kts 214°
2026-05-05 21:34 -20.76199 -44.79713 36202 ft 433 kts 214°
2026-05-05 21:35 -20.81218 -44.83236 36203 ft 433 kts 214°
2026-05-05 21:35 -20.86228 -44.86756 36203 ft 433 kts 214°
2026-05-05 21:36 -20.91271 -44.90302 36203 ft 433 kts 214°
2026-05-05 21:36 -20.96309 -44.93849 36202 ft 432 kts 214°
2026-05-05 21:37 -21.01325 -44.97381 36200 ft 433 kts 214°
2026-05-05 21:37 -21.06265 -45.00862 36202 ft 432 kts 214°
2026-05-05 21:38 -21.11269 -45.04393 36199 ft 432 kts 214°
2026-05-05 21:38 -21.16307 -45.07950 36200 ft 432 kts 214°
2026-05-05 21:39 -21.20471 -45.10892 36197 ft 432 kts 214°
2026-05-05 21:39 -21.26322 -45.15029 36202 ft 432 kts 214°
2026-05-05 21:40 -21.31339 -45.18580 36200 ft 432 kts 214°
2026-05-05 21:40 -21.36344 -45.22125 36197 ft 432 kts 214°
2026-05-05 21:41 -21.40551 -45.25108 36200 ft 432 kts 214°
2026-05-05 21:41 -21.45533 -45.28643 36196 ft 432 kts 214°
2026-05-05 21:42 -21.50559 -45.32212 36196 ft 432 kts 214°
2026-05-05 21:42 -21.55445 -45.35684 36201 ft 432 kts 214°
2026-05-05 21:43 -21.60433 -45.39231 36201 ft 432 kts 214°
2026-05-05 21:43 -21.65452 -45.42803 36201 ft 432 kts 214°
2026-05-05 21:44 -21.70464 -45.46374 36197 ft 432 kts 214°
2026-05-05 21:44 -21.75479 -45.49950 36200 ft 432 kts 214°
2026-05-05 21:45 -21.80478 -45.53517 36200 ft 432 kts 214°
2026-05-05 21:45 -21.85464 -45.57079 36203 ft 432 kts 214°
2026-05-05 21:46 -21.90469 -45.60656 36206 ft 431 kts 214°
2026-05-05 21:46 -21.95365 -45.64160 36209 ft 431 kts 214°
2026-05-05 21:47 -22.00255 -45.67662 36208 ft 431 kts 214°
2026-05-05 21:47 -22.05253 -45.71243 36213 ft 431 kts 214°
2026-05-05 21:48 -22.10191 -45.74784 36204 ft 431 kts 214°
2026-05-05 21:48 -22.14810 -45.78100 36217 ft 431 kts 214°
2026-05-05 21:49 -22.19346 -45.81359 36214 ft 431 kts 214°
2026-05-05 21:49 -22.24338 -45.84950 36213 ft 431 kts 214°
2026-05-05 21:50 -22.29308 -45.88526 36218 ft 430 kts 214°
2026-05-05 21:50 -22.33867 -45.91810 36222 ft 431 kts 214°
2026-05-05 21:51 -22.38863 -45.95412 36215 ft 430 kts 214°
2026-05-05 21:51 -22.41362 -45.97213 35917 ft 429 kts 214°
2026-05-05 21:51 -22.43855 -45.99012 35164 ft 433 kts 214°
2026-05-05 21:52 -22.48980 -46.02713 32462 ft 454 kts 214°
2026-05-05 21:52 -22.50709 -46.03963 31462 ft 460 kts 214°
2026-05-05 21:52 -22.52784 -46.05464 30186 ft 469 kts 214°
2026-05-05 21:53 -22.54651 -46.06814 29190 ft 472 kts 214°
2026-05-05 21:53 -22.57375 -46.08784 28280 ft 466 kts 214°
2026-05-05 21:53 -22.60053 -46.10720 27357 ft 458 kts 214°
2026-05-05 21:53 -22.62667 -46.12611 26277 ft 453 kts 214°
2026-05-05 21:54 -22.65291 -46.14510 25176 ft 451 kts 214°
2026-05-05 21:54 -22.67890 -46.16393 24151 ft 447 kts 214°
2026-05-05 21:54 -22.70444 -46.18244 23041 ft 445 kts 213°
2026-05-05 21:54 -22.73024 -46.20115 22324 ft 441 kts 213°
2026-05-05 21:55 -22.75565 -46.21957 21638 ft 437 kts 213°
2026-05-05 21:55 -22.78014 -46.23734 20952 ft 433 kts 213°
2026-05-05 21:55 -22.80476 -46.25522 20258 ft 428 kts 213°
2026-05-05 21:55 -22.82946 -46.27317 19244 ft 422 kts 213°
2026-05-05 21:56 -22.85376 -46.29084 18182 ft 418 kts 213°
2026-05-05 21:56 -22.87659 -46.30745 17166 ft 412 kts 213°
2026-05-05 21:56 -22.90032 -46.32472 16121 ft 406 kts 213°
2026-05-05 21:56 -22.92373 -46.34174 15097 ft 401 kts 213°
2026-05-05 21:57 -22.94684 -46.35855 14068 ft 397 kts 213°
2026-05-05 21:57 -22.96964 -46.37516 12986 ft 391 kts 213°
2026-05-05 21:57 -22.99183 -46.39133 11947 ft 385 kts 213°
2026-05-05 21:57 -23.01261 -46.40647 11096 ft 378 kts 213°
2026-05-05 21:58 -23.03355 -46.42175 10623 ft 359 kts 213°
2026-05-05 21:58 -23.05382 -46.43655 10382 ft 356 kts 213°
2026-05-05 21:58 -23.07446 -46.45161 10266 ft 356 kts 213°
2026-05-05 21:58 -23.09501 -46.46660 10224 ft 355 kts 213°
2026-05-05 21:59 -23.11551 -46.48156 10225 ft 349 kts 213°
2026-05-05 21:59 -23.12336 -46.48729 10181 ft 343 kts 213°
2026-05-05 21:59 -23.13941 -46.49903 10056 ft 330 kts 213°
2026-05-05 21:59 -23.15796 -46.51262 9882 ft 311 kts 213°
2026-05-05 22:00 -23.17359 -46.52403 9459 ft 299 kts 213°
2026-05-05 22:00 -23.18961 -46.53575 8818 ft 296 kts 213°
2026-05-05 22:00 -23.20610 -46.54783 8406 ft 284 kts 213°
2026-05-05 22:00 -23.22235 -46.55968 8160 ft 288 kts 212°
2026-05-05 22:01 -23.23749 -46.57050 7950 ft 291 kts 212°
2026-05-05 22:01 -23.25441 -46.58250 7548 ft 289 kts 212°
2026-05-05 22:01 -23.27114 -46.59431 7031 ft 288 kts 212°
2026-05-05 22:01 -23.28762 -46.60596 6497 ft 284 kts 212°
2026-05-05 22:02 -23.30272 -46.61667 6142 ft 272 kts 212°
2026-05-05 22:02 -23.31891 -46.62814 6030 ft 282 kts 212°
2026-05-05 22:02 -23.33524 -46.63974 5994 ft 279 kts 212°
2026-05-05 22:02 -23.35149 -46.65129 5995 ft 278 kts 212°
2026-05-05 22:03 -23.36756 -46.66271 5992 ft 279 kts 212°
2026-05-05 22:03 -23.38385 -46.67433 5936 ft 277 kts 212°
2026-05-05 22:03 -23.39991 -46.68576 5665 ft 273 kts 212°
2026-05-05 22:03 -23.41583 -46.69681 5052 ft 277 kts 207°
2026-05-05 22:04 -23.43378 -46.70217 4962 ft 263 kts 179°
2026-05-05 22:04 -23.45219 -46.69930 5106 ft 268 kts 165°
2026-05-05 22:04 -23.46840 -46.69159 4956 ft 248 kts 141°
2026-05-05 22:04 -23.47909 -46.67810 4743 ft 229 kts 118°
2026-05-05 22:05 -23.48352 -46.66205 4500 ft 214 kts 94°
2026-05-05 22:05 -23.48217 -46.64662 4382 ft 197 kts 75°
2026-05-05 22:05 -23.47792 -46.63303 4272 ft 185 kts 72°
2026-05-05 22:05 -23.47412 -46.62021 4189 ft 175 kts 74°
2026-05-05 22:06 -23.47086 -46.60822 4123 ft 184 kts 75°
2026-05-05 22:06 -23.46739 -46.59496 4093 ft 180 kts 75°
2026-05-05 22:06 -23.46394 -46.58175 4095 ft 180 kts 75°
2026-05-05 22:06 -23.46059 -46.56913 4033 ft 169 kts 76°
2026-05-05 22:07 -23.45760 -46.55786 3878 ft 157 kts 75°
2026-05-05 22:07 -23.45461 -46.54657 3604 ft 154 kts 75°
2026-05-05 22:07 -23.45155 -46.53505 3529 ft 162 kts 75°
2026-05-05 22:07 -23.44878 -46.52469 3390 ft 156 kts 75°
2026-05-05 22:08 -23.44600 -46.51431 3115 ft 154 kts 75°
2026-05-05 22:08 -23.44321 -46.50360 2773 ft 151 kts 74°
2026-05-05 22:08 -23.44181 -46.49824 2739 ft 152 kts 74°
2026-05-05 22:08 -23.43881 -46.48708 2555 ft 156 kts 75°
2026-05-05 22:09 -23.43678 -46.47906 2475 ft 136 kts 62°
2026-05-05 22:09 -23.43485 -46.47292 2473 ft 47 kts 76°
2026-05-05 22:09 -23.43472 -46.47235 2470 ft 4 kts 76°
2026-05-05 22:09 -23.43440 -46.47098 2475 ft 33 kts 74°
2026-05-05 22:10 -23.43324 -46.46888 2475 ft 23 kts 44°
2026-05-05 22:10 -23.43311 -46.46874 2474 ft 0 kts 44°
2026-05-05 22:13 -23.43306 -46.46870 2474 ft 3 kts 44°
2026-05-05 22:13 -23.43265 -46.46827 2475 ft 13 kts 44°
2026-05-05 22:13 -23.43184 -46.46740 2476 ft 20 kts 44°
2026-05-05 22:14 -23.43069 -46.46729 2477 ft 20 kts 340°
2026-05-05 22:14 -23.42925 -46.46778 2474 ft 23 kts 342°
2026-05-05 22:14 -23.42893 -46.46788 2473 ft 0 kts 342°
2026-05-05 22:15 -23.42893 -46.46789 2473 ft 0 kts 342°
2026-05-05 22:15 -23.42817 -46.46803 2475 ft 17 kts 351°
2026-05-05 22:16 -23.42701 -46.46781 2471 ft 18 kts
2026-05-05 22:16 -23.42586 -46.46845 2467 ft 19 kts 338°
2026-05-05 22:16 -23.42548 -46.46900 2462 ft 8 kts 270°
2026-05-05 22:16 -23.42550 -46.46929 2468 ft 0 kts 259°
2026-05-05 22:17 -23.42552 -46.46937 2468 ft 0 kts 257°